M I D A S
Marine Information and Data Acquisition System
Tripno 1545 of the Zeeleeuw from 2008-08-27 04:20:40 to 2008-08-27 15:05:10
Back to CruiseResearch ActivitiesStationsMapUnderway DataData graphs

EquipmentUnitsComment
TimeDGPSUTC
LatitudeDGPSDM.mWGS84
LongitudeDGPSDM.mWGS84
TemperatureSBE03/SBE38deg celciusITS90
ConductivitySBE21S/mITS90
SalinitySBE21 Practical Salinity Units
ChlorophylAChelsea fluorimeterg/lCalibrated in Aceton
Missing or incorrect values are displayed as -999
Sea surface data collected by the RV Zeeleeuw from 2008-08-27 04:15:07 to 2008-08-27 15:06:04
                                                                                    Next 1000 lines
Time Latitude Longitude Temperature Conductivity Salinity ChlorophylA
2008-08-27 04:15:17 51°13.622 2°56.045 20.5792 0.064641 0.334937 -1.174688
2008-08-27 04:15:22 51°13.622 2°56.045 20.5795 0.064538 0.334389 -1.174688
2008-08-27 04:15:27 51°13.622 2°56.045 20.5803 0.064538 0.334389 -1.174688
2008-08-27 04:15:32 51°13.621 2°56.045 20.5803 0.064641 0.334937 -1.174688
2008-08-27 04:15:37 51°13.622 2°56.046 20.581 0.064538 0.334394 -1.174688
2008-08-27 04:15:42 51°13.622 2°56.046 20.581 0.064538 0.334394 -1.174688
2008-08-27 04:15:47 51°13.622 2°56.046 20.582 0.064538 0.3344 -1.174688
2008-08-27 04:15:52 51°13.622 2°56.046 20.5818 0.064538 0.3344 -1.174688
2008-08-27 04:15:57 51°13.622 2°56.046 20.5822 0.064538 0.3344 -1.174688
2008-08-27 04:16:02 51°13.622 2°56.046 20.5827 0.064538 0.334405 -1.174688
2008-08-27 04:16:07 51°13.622 2°56.046 20.5826 0.064538 0.3344 -1.139864
2008-08-27 04:16:12 51°13.622 2°56.046 20.5825 0.064538 0.334405 -1.174688
2008-08-27 04:16:17 51°13.622 2°56.046 20.5823 0.064538 0.334411 -1.174688
2008-08-27 04:16:22 51°13.622 2°56.046 20.5835 0.064538 0.334411 -1.174688
2008-08-27 04:16:27 51°13.622 2°56.047 20.5825 0.064538 0.334411 -1.174688
2008-08-27 04:16:32 51°13.622 2°56.047 20.5793 0.064538 0.334411 -1.174688
2008-08-27 04:16:37 51°13.622 2°56.047 20.5765 0.064538 0.334411 -1.174688
2008-08-27 04:16:42 51°13.622 2°56.047 20.5778 0.064538 0.334411 -1.174688
2008-08-27 04:16:47 51°13.622 2°56.047 20.5815 0.064538 0.334411 -1.174688
2008-08-27 04:16:52 51°13.622 2°56.047 20.5824 0.064538 0.334416 -1.174688
2008-08-27 04:16:57 51°13.622 2°56.047 20.5832 0.064538 0.334416 -1.174688
2008-08-27 04:17:02 51°13.622 2°56.047 20.5842 0.064538 0.334416 -1.174688
2008-08-27 04:17:07 51°13.622 2°56.046 20.5869 0.064538 0.334416 -1.139864
2008-08-27 04:17:12 51°13.622 2°56.046 20.5894 0.064538 0.334422 -1.174688
2008-08-27 04:17:17 51°13.622 2°56.046 20.5889 0.064538 0.334422 -1.174688
2008-08-27 04:17:22 51°13.622 2°56.046 20.59 0.064538 0.334422 -1.174688
2008-08-27 04:17:27 51°13.622 2°56.046 20.5896 0.064538 0.334422 -1.174688
2008-08-27 04:17:32 51°13.622 2°56.046 20.5901 0.064538 0.334427 -1.174688
2008-08-27 04:17:37 51°13.622 2°56.046 20.59 0.064538 0.334427 -1.174688
2008-08-27 04:17:42 51°13.622 2°56.046 20.5909 0.064538 0.334427 -1.174688
2008-08-27 04:17:47 51°13.622 2°56.047 20.5905 0.064538 0.334427 -1.174688
2008-08-27 04:17:52 51°13.622 2°56.047 20.5838 0.064538 0.334433 -1.174688
2008-08-27 04:17:57 51°13.622 2°56.047 20.5785 0.064538 0.334433 -1.174688
2008-08-27 04:18:02 51°13.622 2°56.047 20.5777 0.064538 0.334433 -1.139864
2008-08-27 04:18:07 51°13.622 2°56.047 20.5844 0.064538 0.334433 -1.174688
2008-08-27 04:18:12 51°13.622 2°56.047 20.5846 0.064538 0.334433 -1.174688
2008-08-27 04:18:17 51°13.622 2°56.046 20.5865 0.064538 0.334438 -1.174688
2008-08-27 04:18:22 51°13.622 2°56.046 20.5877 0.064538 0.334438 -1.174688
2008-08-27 04:18:27 51°13.622 2°56.046 20.6013 0.064538 0.334438 -1.174688
2008-08-27 04:18:32 51°13.622 2°56.047 20.6096 0.064538 0.334444 -1.174688
2008-08-27 04:18:37 51°13.622 2°56.047 20.5965 0.064538 0.334444 -1.174688
2008-08-27 04:18:42 51°13.622 2°56.047 20.5937 0.064538 0.334444 -1.174688
2008-08-27 04:18:47 51°13.622 2°56.047 20.5992 0.064538 0.334449 -1.174688
2008-08-27 04:18:52 51°13.623 2°56.047 20.594 0.064538 0.334449 -1.174688
2008-08-27 04:18:57 51°13.622 2°56.047 20.5935 0.064538 0.334449 -1.174688
2008-08-27 04:19:02 51°13.622 2°56.047 20.5952 0.064538 0.334449 -1.174688
2008-08-27 04:19:07 51°13.622 2°56.047 20.5934 0.064538 0.334455 -1.174688
2008-08-27 04:19:12 51°13.622 2°56.047 20.5933 0.064538 0.334455 -1.174688
2008-08-27 04:19:17 51°13.623 2°56.047 20.5945 0.064538 0.334455 -1.174688
2008-08-27 04:19:22 51°13.623 2°56.047 20.594 0.064538 0.33446 -1.174688
2008-08-27 04:19:27 51°13.623 2°56.047 20.5942 0.064538 0.33446 -1.174688
2008-08-27 04:19:32 51°13.623 2°56.047 20.5943 0.064538 0.33446 -1.174688
2008-08-27 04:19:37 51°13.623 2°56.047 20.5952 0.064538 0.33446 -1.174688
2008-08-27 04:19:42 51°13.623 2°56.047 20.5966 0.064538 0.33446 -1.174688
2008-08-27 04:19:47 51°13.623 2°56.047 20.5978 0.064538 0.334466 -1.174688
2008-08-27 04:19:52 51°13.623 2°56.047 20.5975 0.064538 0.334466 -1.174688
2008-08-27 04:19:57 51°13.623 2°56.048 20.5978 0.064538 0.334466 -1.174688
2008-08-27 04:20:02 51°13.623 2°56.048 20.5995 0.064538 0.334466 -1.174688
2008-08-27 04:20:07 51°13.623 2°56.048 20.6014 0.064538 0.334466 -1.174688
2008-08-27 04:20:12 51°13.623 2°56.048 20.6016 0.064538 0.334471 -1.174688
2008-08-27 04:20:17 51°13.623 2°56.048 20.608 0.064538 0.334471 -1.174688
2008-08-27 04:20:22 51°13.623 2°56.048 20.6089 0.064538 0.334477 -1.174688
2008-08-27 04:20:27 51°13.623 2°56.048 20.61 0.064538 0.334477 -1.174688
2008-08-27 04:20:32 51°13.623 2°56.047 20.6094 0.064538 0.334477 -1.174688
2008-08-27 04:20:37 51°13.623 2°56.047 20.6109 0.064538 0.334482 -1.174688
2008-08-27 04:20:42 51°13.622 2°56.047 20.6101 0.064538 0.334482 -1.174688
2008-08-27 04:20:47 51°13.622 2°56.048 20.608 0.064538 0.334482 -1.174688
2008-08-27 04:20:52 51°13.622 2°56.048 20.6071 0.064538 0.334482 -1.174688
2008-08-27 04:20:57 51°13.622 2°56.047 20.6013 0.064538 0.334482 -1.174688
2008-08-27 04:21:02 51°13.623 2°56.047 20.581 0.064538 0.334488 -1.174688
2008-08-27 04:21:07 51°13.623 2°56.046 20.5762 0.064538 0.334488 -1.174688
2008-08-27 04:21:12 51°13.623 2°56.046 20.5601 0.064538 0.334488 -1.174688
2008-08-27 04:21:17 51°13.623 2°56.045 20.5723 0.064538 0.334482 -1.139864
2008-08-27 04:21:22 51°13.623 2°56.043 20.5378 0.064538 0.334488 -1.174688
2008-08-27 04:21:27 51°13.624 2°56.041 20.5657 0.064538 0.334488 -1.174688
2008-08-27 04:21:32 51°13.625 2°56.039 20.578 0.064538 0.334493 -1.174688
2008-08-27 04:21:37 51°13.625 2°56.037 20.5812 0.064538 0.334493 -1.174688
2008-08-27 04:21:42 51°13.626 2°56.034 20.5787 0.064538 0.334493 -1.174688
2008-08-27 04:21:47 51°13.627 2°56.031 20.5859 0.064538 0.334493 -1.174688
2008-08-27 04:21:52 51°13.628 2°56.028 20.5897 0.064538 0.334499 -1.174688
2008-08-27 04:21:57 51°13.629 2°56.025 20.6154 0.064538 0.334499 -1.174688
2008-08-27 04:22:02 51°13.63 2°56.023 20.6147 0.064538 0.334499 -1.174688
2008-08-27 04:22:07 51°13.63 2°56.022 20.621 0.064538 0.334499 -1.174688
2008-08-27 04:22:12 51°13.63 2°56.022 20.6244 0.064538 0.334499 -1.174688
2008-08-27 04:22:17 51°13.63 2°56.023 20.6231 0.064538 0.334499 -1.174688
2008-08-27 04:22:22 51°13.629 2°56.026 20.6097 0.064538 0.334499 -1.174688
2008-08-27 04:22:27 51°13.628 2°56.029 20.5832 0.064538 0.334499 -1.174688
2008-08-27 04:22:32 51°13.627 2°56.032 20.5728 0.064538 0.334499 -1.174688
2008-08-27 04:22:37 51°13.626 2°56.036 20.5756 0.064538 0.334499 -1.174688
2008-08-27 04:22:42 51°13.624 2°56.04 20.5756 0.064538 0.334504 -1.174688
2008-08-27 04:22:47 51°13.622 2°56.044 20.5801 0.064538 0.33451 -1.139864
2008-08-27 04:22:52 51°13.62 2°56.048 20.5836 0.064538 0.334521 -1.174688
2008-08-27 04:22:57 51°13.618 2°56.053 20.5836 0.064538 0.334521 -1.174688
2008-08-27 04:23:02 51°13.615 2°56.058 20.5871 0.064538 0.334521 -1.174688
2008-08-27 04:23:07 51°13.613 2°56.063 20.5866 0.064538 0.334526 -1.174688
2008-08-27 04:23:12 51°13.61 2°56.068 20.5874 0.064538 0.334526 -1.174688
2008-08-27 04:23:17 51°13.608 2°56.073 20.5894 0.064538 0.334526 -1.174688
2008-08-27 04:23:22 51°13.605 2°56.078 20.5901 0.064538 0.334526 -1.174688
2008-08-27 04:23:27 51°13.602 2°56.083 20.5885 0.064538 0.334526 -1.174688
2008-08-27 04:23:32 51°13.599 2°56.089 20.5901 0.064538 0.334526 -1.139864
2008-08-27 04:23:37 51°13.596 2°56.094 20.5914 0.064538 0.334526 -1.174688
2008-08-27 04:23:42 51°13.594 2°56.1 20.5873 0.064538 0.334532 -1.174688
2008-08-27 04:23:47 51°13.591 2°56.106 20.5911 0.064538 0.334532 -1.174688
2008-08-27 04:23:52 51°13.588 2°56.112 20.5912 0.064538 0.334532 -1.174688
2008-08-27 04:23:57 51°13.585 2°56.118 20.5907 0.064538 0.334532 -1.174688
2008-08-27 04:24:02 51°13.582 2°56.125 20.5893 0.064538 0.334537 -1.174688
2008-08-27 04:24:07 51°13.579 2°56.131 20.5909 0.064538 0.334537 -1.174688
2008-08-27 04:24:12 51°13.577 2°56.137 20.5896 0.064538 0.334537 -1.174688
2008-08-27 04:24:17 51°13.574 2°56.142 20.5917 0.064538 0.334543 -1.174688
2008-08-27 04:24:22 51°13.572 2°56.148 20.5919 0.064538 0.334543 -1.174688
2008-08-27 04:24:27 51°13.57 2°56.154 20.5945 0.064538 0.334543 -1.174688
2008-08-27 04:24:32 51°13.568 2°56.159 20.5968 0.064538 0.334548 -1.174688
2008-08-27 04:24:37 51°13.566 2°56.165 20.6019 0.064538 0.334548 -1.174688
2008-08-27 04:24:42 51°13.565 2°56.17 20.6103 0.064538 0.334548 -1.174688
2008-08-27 04:24:47 51°13.563 2°56.176 20.6219 0.064538 0.334554 -1.174688
2008-08-27 04:24:52 51°13.561 2°56.182 20.5685 0.064538 0.334554 -1.174688
2008-08-27 04:24:57 51°13.559 2°56.188 20.5262 0.064538 0.334554 -1.174688
2008-08-27 04:25:02 51°13.557 2°56.194 20.519 0.064538 0.334543 -1.174688
2008-08-27 04:25:07 51°13.554 2°56.199 20.4986 0.064538 0.334543 -1.174688
2008-08-27 04:25:12 51°13.551 2°56.204 20.4854 0.064538 0.334543 -1.174688
2008-08-27 04:25:17 51°13.549 2°56.208 20.485 0.064538 0.334548 -1.174688
2008-08-27 04:25:22 51°13.546 2°56.212 20.5047 0.064538 0.334554 -1.174688
2008-08-27 04:25:27 51°13.543 2°56.216 20.5228 0.064538 0.334554 -1.174688
2008-08-27 04:25:32 51°13.54 2°56.219 20.5365 0.064538 0.334559 -1.174688
2008-08-27 04:25:37 51°13.537 2°56.222 20.5406 0.064538 0.334565 -1.174688
2008-08-27 04:25:42 51°13.533 2°56.225 20.5719 0.064538 0.33457 -1.174688
2008-08-27 04:25:47 51°13.531 2°56.226 20.5745 0.064538 0.334576 -1.174688
2008-08-27 04:25:52 51°13.528 2°56.228 20.5748 0.064538 0.334576 -1.174688
2008-08-27 04:25:57 51°13.526 2°56.229 20.5923 0.064538 0.334576 -1.174688
2008-08-27 04:26:02 51°13.525 2°56.23 20.6148 0.064538 0.334576 -1.174688
2008-08-27 04:26:07 51°13.524 2°56.23 20.6325 0.064538 0.334581 -1.174688
2008-08-27 04:26:12 51°13.523 2°56.231 20.6079 0.064538 0.334581 -1.174688
2008-08-27 04:26:17 51°13.523 2°56.231 20.5998 0.064538 0.334581 -1.174688
2008-08-27 04:26:22 51°13.523 2°56.231 20.5939 0.064538 0.334587 -1.174688
2008-08-27 04:26:27 51°13.523 2°56.231 20.6005 0.064538 0.334587 -1.174688
2008-08-27 04:26:32 51°13.523 2°56.231 20.6104 0.064538 0.334587 -1.174688
2008-08-27 04:26:37 51°13.524 2°56.231 20.6201 0.064538 0.334592 -1.174688
2008-08-27 04:26:42 51°13.524 2°56.23 20.6324 0.064538 0.334592 -1.174688
2008-08-27 04:26:47 51°13.524 2°56.23 20.6438 0.064538 0.334592 -1.174688
2008-08-27 04:26:52 51°13.523 2°56.23 20.6479 0.064538 0.334587 -1.174688
2008-08-27 04:26:57 51°13.523 2°56.229 20.6514 0.064538 0.334587 -1.174688
2008-08-27 04:27:02 51°13.522 2°56.229 20.6503 0.064538 0.334587 -1.174688
2008-08-27 04:27:07 51°13.521 2°56.229 20.629 0.064538 0.334587 -1.174688
2008-08-27 04:27:12 51°13.52 2°56.228 20.6241 0.064538 0.334581 -1.174688
2008-08-27 04:27:17 51°13.519 2°56.227 20.6235 0.064538 0.334587 -1.174688
2008-08-27 04:27:22 51°13.519 2°56.227 20.6214 0.064538 0.334587 -1.174688
2008-08-27 04:27:28 51°13.519 2°56.227 20.6214 0.064538 0.334587 -1.174688
2008-08-27 04:27:32 51°13.519 2°56.227 20.5981 0.064538 0.334592 -1.174688
2008-08-27 04:27:37 51°13.519 2°56.227 20.596 0.064538 0.334598 -1.174688
2008-08-27 04:27:42 51°13.52 2°56.228 20.5948 0.064538 0.334598 -1.174688
2008-08-27 04:27:47 51°13.521 2°56.229 20.617 0.064538 0.334603 -1.139864
2008-08-27 04:27:52 51°13.523 2°56.23 20.6178 0.064538 0.334603 -1.174688
2008-08-27 04:27:57 51°13.524 2°56.231 20.6208 0.064538 0.334603 -1.174688
2008-08-27 04:28:02 51°13.526 2°56.233 20.6211 0.064538 0.334603 -1.174688
2008-08-27 04:28:07 51°13.527 2°56.234 20.6248 0.064538 0.334603 -1.174688
2008-08-27 04:28:12 51°13.529 2°56.236 20.6394 0.064538 0.334609 -1.174688
2008-08-27 04:28:17 51°13.529 2°56.237 20.6435 0.064538 0.334603 -1.174688
2008-08-27 04:28:22 51°13.53 2°56.236 20.6423 0.064538 0.334603 -1.174688
2008-08-27 04:28:27 51°13.529 2°56.235 20.6338 0.064538 0.334603 -1.174688
2008-08-27 04:28:32 51°13.528 2°56.233 20.5938 0.064538 0.334598 -1.174688
2008-08-27 04:28:37 51°13.527 2°56.23 20.5688 0.064538 0.334598 -1.174688
2008-08-27 04:28:42 51°13.526 2°56.225 20.5688 0.064538 0.334598 -1.174688
2008-08-27 04:28:47 51°13.525 2°56.22 20.5763 0.064538 0.334598 -1.174688
2008-08-27 04:28:52 51°13.524 2°56.214 20.5435 0.064538 0.334603 -1.174688
2008-08-27 04:28:57 51°13.524 2°56.207 20.5196 0.064538 0.334603 -1.174688
2008-08-27 04:29:02 51°13.524 2°56.199 20.4588 0.064538 0.334609 -1.174688
2008-08-27 04:29:07 51°13.525 2°56.192 20.485 0.064538 0.33462 -1.174688
2008-08-27 04:29:12 51°13.527 2°56.184 20.5506 0.064538 0.334631 -1.174688
2008-08-27 04:29:17 51°13.53 2°56.176 20.5911 0.064538 0.334642 -1.174688
2008-08-27 04:29:22 51°13.533 2°56.168 20.5996 0.064538 0.334653 -1.174688
2008-08-27 04:29:28 51°13.537 2°56.158 20.621 0.064538 0.334653 -1.174688
2008-08-27 04:29:32 51°13.54 2°56.151 20.6146 0.064538 0.334658 -1.174688
2008-08-27 04:29:37 51°13.544 2°56.143 20.6167 0.064538 0.334658 -1.174688
2008-08-27 04:29:42 51°13.548 2°56.134 20.6263 0.064538 0.334658 -1.174688
2008-08-27 04:29:47 51°13.553 2°56.124 20.6236 0.064538 0.334653 -1.174688
2008-08-27 04:29:52 51°13.557 2°56.114 20.6191 0.064538 0.334647 -1.174688
2008-08-27 04:29:57 51°13.562 2°56.104 20.617 0.064538 0.334647 -1.174688
2008-08-27 04:30:02 51°13.567 2°56.094 20.6176 0.064538 0.334647 -1.174688
2008-08-27 04:30:07 51°13.572 2°56.083 20.6172 0.064538 0.334647 -1.174688
2008-08-27 04:30:12 51°13.578 2°56.072 20.618 0.064538 0.334647 -1.174688
2008-08-27 04:30:17 51°13.583 2°56.061 20.6177 0.064538 0.334642 -1.139864
2008-08-27 04:30:22 51°13.589 2°56.05 20.6176 0.064538 0.334647 -1.174688
2008-08-27 04:30:27 51°13.594 2°56.038 20.6171 0.064538 0.334647 -1.174688
2008-08-27 04:30:32 51°13.6 2°56.026 20.6177 0.064538 0.334647 -1.174688
2008-08-27 04:30:37 51°13.606 2°56.014 20.6147 0.064538 0.334647 -1.174688
2008-08-27 04:30:42 51°13.612 2°56.001 20.616 0.064538 0.334647 -1.174688
2008-08-27 04:30:47 51°13.618 2°55.989 20.6144 0.064538 0.334647 -1.174688
2008-08-27 04:30:52 51°13.624 2°55.977 20.614 0.064538 0.334647 -1.139864
2008-08-27 04:30:57 51°13.63 2°55.964 20.6145 0.064538 0.334647 -1.139864
2008-08-27 04:31:02 51°13.636 2°55.951 20.6139 0.064538 0.334642 -1.174688
2008-08-27 04:31:07 51°13.642 2°55.938 20.6126 0.064538 0.334647 -1.174688
2008-08-27 04:31:12 51°13.647 2°55.925 20.6125 0.064538 0.334653 -1.174688
2008-08-27 04:31:17 51°13.653 2°55.912 20.6093 0.064538 0.334647 -1.174688
2008-08-27 04:31:22 51°13.659 2°55.899 20.6104 0.064538 0.334653 -1.174688
2008-08-27 04:31:27 51°13.665 2°55.885 20.6062 0.064538 0.334653 -1.174688
2008-08-27 04:31:32 51°13.671 2°55.872 20.6077 0.064538 0.334653 -1.174688
2008-08-27 04:31:37 51°13.678 2°55.859 20.606 0.064538 0.334653 -1.139864
2008-08-27 04:31:42 51°13.684 2°55.846 20.6075 0.064538 0.334647 -1.174688
2008-08-27 04:31:47 51°13.69 2°55.833 20.6056 0.064538 0.334647 -1.174688
2008-08-27 04:31:52 51°13.697 2°55.821 20.6043 0.064538 0.334647 -1.174688
2008-08-27 04:31:57 51°13.703 2°55.808 20.5971 0.064538 0.334647 -1.174688
2008-08-27 04:32:02 51°13.71 2°55.795 20.5987 0.064538 0.334647 -1.174688
2008-08-27 04:32:07 51°13.717 2°55.783 20.5894 0.064538 0.334647 -1.174688
2008-08-27 04:32:12 51°13.724 2°55.77 20.5739 0.064538 0.334647 -1.174688
2008-08-27 04:32:17 51°13.731 2°55.758 20.5565 0.064538 0.334653 -1.174688
2008-08-27 04:32:22 51°13.738 2°55.746 20.5553 0.064538 0.334653 -1.174688
2008-08-27 04:32:27 51°13.746 2°55.735 20.5623 0.064538 0.334653 -1.174688
2008-08-27 04:32:32 51°13.754 2°55.724 20.5738 0.064538 0.334653 -1.174688
2008-08-27 04:32:37 51°13.762 2°55.713 20.5782 0.064538 0.334653 -1.174688
2008-08-27 04:32:42 51°13.77 2°55.702 20.597 0.064538 0.334653 -1.174688
2008-08-27 04:32:47 51°13.778 2°55.692 20.5985 0.064538 0.334658 -1.174688
2008-08-27 04:32:52 51°13.786 2°55.682 20.5928 0.064538 0.334658 -1.174688
2008-08-27 04:32:57 51°13.795 2°55.672 20.5883 0.064538 0.334658 -1.174688
2008-08-27 04:33:02 51°13.804 2°55.663 20.5858 0.064538 0.334653 -1.174688
2008-08-27 04:33:07 51°13.813 2°55.654 20.5852 0.064538 0.334653 -1.139864
2008-08-27 04:33:12 51°13.822 2°55.645 20.5861 0.064538 0.334647 -1.174688
2008-08-27 04:33:17 51°13.831 2°55.637 20.5884 0.064538 0.334647 -1.174688
2008-08-27 04:33:22 51°13.84 2°55.63 20.5895 0.064538 0.334647 -1.174688
2008-08-27 04:33:27 51°13.85 2°55.623 20.5935 0.064538 0.334647 -1.174688
2008-08-27 04:33:32 51°13.86 2°55.617 20.601 0.064538 0.334647 -1.174688
2008-08-27 04:33:37 51°13.87 2°55.611 20.6065 0.064538 0.334647 -1.174688
2008-08-27 04:33:42 51°13.88 2°55.605 20.6166 0.064538 0.334647 -1.174688
2008-08-27 04:33:47 51°13.89 2°55.598 20.6439 0.064538 0.334653 -1.174688
2008-08-27 04:33:52 51°13.899 2°55.592 20.639 0.064538 0.334653 -1.174688
2008-08-27 04:33:57 51°13.909 2°55.585 20.6466 0.064538 0.334653 -1.174688
2008-08-27 04:34:02 51°13.919 2°55.578 20.6304 0.064538 0.334653 -1.174688
2008-08-27 04:34:07 51°13.929 2°55.571 20.6395 0.064538 0.334653 -1.174688
2008-08-27 04:34:12 51°13.938 2°55.564 20.638 0.064538 0.334653 -1.174688
2008-08-27 04:34:17 51°13.948 2°55.557 20.6335 0.064538 0.334647 -1.174688
2008-08-27 04:34:22 51°13.957 2°55.55 20.6304 0.064538 0.334642 -1.174688
2008-08-27 04:34:27 51°13.967 2°55.543 20.6258 0.064538 0.334642 -1.174688
2008-08-27 04:34:32 51°13.977 2°55.536 20.6191 0.064538 0.334642 -1.174688
2008-08-27 04:34:37 51°13.986 2°55.529 20.6177 0.064538 0.334636 -1.174688
2008-08-27 04:34:42 51°13.996 2°55.522 20.6284 0.064538 0.334636 -1.174688
2008-08-27 04:34:47 51°14.006 2°55.515 20.627 0.064538 0.334636 -1.139864
2008-08-27 04:34:52 51°14.015 2°55.508 20.625 0.064538 0.334636 -1.174688
2008-08-27 04:34:57 51°14.025 2°55.501 20.6269 0.064538 0.334636 -1.174688
2008-08-27 04:35:02 51°14.035 2°55.495 20.6277 0.064538 0.334636 -1.174688
2008-08-27 04:35:07 51°14.044 2°55.488 20.6288 0.064538 0.334631 -1.174688
2008-08-27 04:35:12 51°14.054 2°55.481 20.6292 0.064538 0.334631 -1.174688
2008-08-27 04:35:17 51°14.063 2°55.474 20.6292 0.064538 0.334631 -1.174688
2008-08-27 04:35:22 51°14.073 2°55.467 20.6271 0.064538 0.334631 -1.139864
2008-08-27 04:35:27 51°14.082 2°55.46 20.6281 0.064538 0.334631 -1.139864
2008-08-27 04:35:32 51°14.092 2°55.453 20.628 0.064538 0.334625 -1.174688
2008-08-27 04:35:37 51°14.102 2°55.446 20.628 0.064538 0.334625 -1.174688
2008-08-27 04:35:42 51°14.111 2°55.439 20.6334 0.064538 0.33462 -1.174688
2008-08-27 04:35:47 51°14.121 2°55.432 20.6412 0.064538 0.33462 -1.174688
2008-08-27 04:35:52 51°14.13 2°55.425 20.6472 0.064538 0.33462 -1.174688
2008-08-27 04:35:57 51°14.139 2°55.417 20.6483 0.064538 0.33462 -1.174688
2008-08-27 04:36:02 51°14.149 2°55.409 20.6368 0.064538 0.334614 -1.174688
2008-08-27 04:36:07 51°14.158 2°55.401 20.6435 0.064538 0.334609 -1.174688
2008-08-27 04:36:12 51°14.167 2°55.393 20.651 0.064538 0.334609 -1.174688
2008-08-27 04:36:17 51°14.176 2°55.384 20.6491 0.064538 0.334609 -1.174688
2008-08-27 04:36:22 51°14.185 2°55.376 20.6557 0.064538 0.334603 -1.174688
2008-08-27 04:36:27 51°14.193 2°55.367 20.6639 0.064538 0.334603 -1.174688
2008-08-27 04:36:32 51°14.202 2°55.357 20.6798 0.064538 0.334609 -1.174688
2008-08-27 04:36:37 51°14.21 2°55.347 20.6738 0.064538 0.334603 -1.174688
2008-08-27 04:36:42 51°14.218 2°55.336 20.6689 0.064538 0.334603 -1.174688
2008-08-27 04:36:47 51°14.226 2°55.325 20.6831 0.064538 0.334598 -1.174688
2008-08-27 04:36:52 51°14.234 2°55.313 20.6718 0.064538 0.334598 -1.174688
2008-08-27 04:36:57 51°14.241 2°55.3 20.6508 0.064538 0.334598 -1.174688
2008-08-27 04:37:02 51°14.249 2°55.288 20.6341 0.064538 0.334592 -1.139864
2008-08-27 04:37:07 51°14.256 2°55.274 20.6409 0.064538 0.334592 -1.174688
2008-08-27 04:37:12 51°14.264 2°55.261 20.6353 0.064538 0.334587 -1.174688
2008-08-27 04:37:17 51°14.272 2°55.247 20.6595 0.064538 0.334581 -1.174688
2008-08-27 04:37:22 51°14.279 2°55.233 20.6487 0.064538 0.334581 -1.174688
2008-08-27 04:37:27 51°14.286 2°55.218 20.6334 0.064538 0.334581 -1.174688
2008-08-27 04:37:32 51°14.294 2°55.204 20.6312 0.064538 0.334581 -1.174688
2008-08-27 04:37:37 51°14.301 2°55.189 20.6248 0.064538 0.334576 -1.174688
2008-08-27 04:37:42 51°14.309 2°55.175 20.6425 0.064538 0.334576 -1.174688
2008-08-27 04:37:47 51°14.316 2°55.159 20.6466 0.064538 0.334581 -1.174688
2008-08-27 04:37:52 51°14.324 2°55.143 20.6185 0.064538 0.334576 -1.174688
2008-08-27 04:37:57 51°14.331 2°55.128 20.6364 0.064538 0.334576 -1.174688
2008-08-27 04:38:02 51°14.339 2°55.112 20.6559 0.064538 0.334576 -1.174688
2008-08-27 04:38:07 51°14.347 2°55.096 20.6561 0.064538 0.334576 -1.174688
2008-08-27 04:38:12 51°14.354 2°55.079 20.6622 0.064538 0.33457 -1.174688
2008-08-27 04:38:17 51°14.362 2°55.062 20.6555 0.064538 0.334576 -1.174688
2008-08-27 04:38:22 51°14.369 2°55.044 20.6556 0.064538 0.334576 -1.174688
2008-08-27 04:38:27 51°14.376 2°55.026 20.6451 0.064538 0.334576 -1.174688
2008-08-27 04:38:32 51°14.383 2°55.007 20.6318 0.064538 0.334576 -1.174688
2008-08-27 04:38:37 51°14.391 2°54.988 20.6571 0.064538 0.33457 -1.174688
2008-08-27 04:38:42 51°14.398 2°54.969 20.6349 0.064538 0.334565 -1.174688
2008-08-27 04:38:47 51°14.406 2°54.95 20.6743 0.064538 0.334565 -1.174688
2008-08-27 04:38:52 51°14.413 2°54.929 20.6392 0.064538 0.33457 -1.174688
2008-08-27 04:38:57 51°14.42 2°54.908 20.6269 0.064538 0.33457 -1.174688
2008-08-27 04:39:02 51°14.427 2°54.887 20.6436 0.064538 0.334565 -1.174688
2008-08-27 04:39:07 51°14.435 2°54.866 20.6298 0.064538 0.334565 -1.174688
2008-08-27 04:39:12 51°14.443 2°54.845 20.6558 0.064538 0.334559 -1.174688
2008-08-27 04:39:17 51°14.451 2°54.822 20.6376 0.064538 0.334565 -1.174688
2008-08-27 04:39:22 51°14.458 2°54.8 20.6194 0.064538 0.334565 -1.174688
2008-08-27 04:39:27 51°14.466 2°54.777 20.6384 0.064538 0.334565 -1.174688
2008-08-27 04:39:32 51°14.473 2°54.753 20.6258 0.064538 0.334565 -1.174688
2008-08-27 04:39:37 51°14.481 2°54.729 20.6359 0.064538 0.334565 -1.174688
2008-08-27 04:39:42 51°14.489 2°54.706 20.6315 0.064538 0.334559 -1.174688
2008-08-27 04:39:47 51°14.496 2°54.681 20.6104 0.064538 0.334559 -1.174688
2008-08-27 04:39:52 51°14.503 2°54.657 20.6509 0.064538 0.334565 -1.174688
2008-08-27 04:39:57 51°14.51 2°54.632 20.6151 0.064538 0.334565 -1.174688
2008-08-27 04:40:02 51°14.517 2°54.608 20.6032 0.064538 0.334559 -1.174688
2008-08-27 04:40:07 51°14.524 2°54.583 20.6251 0.064538 0.334559 -1.174688
2008-08-27 04:40:12 51°14.531 2°54.558 20.629 0.064538 0.334554 -1.174688
2008-08-27 04:40:17 51°14.538 2°54.533 20.6389 0.064538 0.334554 -1.174688
2008-08-27 04:40:22 51°14.545 2°54.508 20.6457 0.064538 0.334559 -1.174688
2008-08-27 04:40:27 51°14.551 2°54.483 20.627 0.064538 0.334559 -1.174688
2008-08-27 04:40:32 51°14.557 2°54.458 20.6403 0.064538 0.334559 -1.174688
2008-08-27 04:40:37 51°14.564 2°54.432 20.6335 0.064538 0.334559 -1.174688
2008-08-27 04:40:42 51°14.57 2°54.407 20.6248 0.064538 0.334559 -1.174688
2008-08-27 04:40:47 51°14.576 2°54.381 20.6224 0.064538 0.334559 -1.174688
2008-08-27 04:40:52 51°14.582 2°54.356 20.6413 0.064538 0.334554 -1.174688
2008-08-27 04:40:57 51°14.588 2°54.33 20.6531 0.064538 0.334554 -1.174688
2008-08-27 04:41:02 51°14.595 2°54.305 20.6488 0.064538 0.334554 -1.174688
2008-08-27 04:41:08 51°14.602 2°54.275 20.6261 0.064538 0.334554 -1.174688
2008-08-27 04:41:12 51°14.607 2°54.254 20.6355 0.064538 0.334554 -1.174688
2008-08-27 04:41:17 51°14.613 2°54.229 20.623 0.064538 0.334554 -1.174688
2008-08-27 04:41:22 51°14.619 2°54.204 20.6431 0.064538 0.334554 -1.174688
2008-08-27 04:41:27 51°14.625 2°54.179 20.6317 0.064538 0.334554 -1.174688
2008-08-27 04:41:32 51°14.632 2°54.153 20.6313 0.064538 0.334548 -1.174688
2008-08-27 04:41:37 51°14.638 2°54.128 20.6348 0.064538 0.334554 -1.174688
2008-08-27 04:41:42 51°14.644 2°54.103 20.6508 0.064538 0.334554 -1.174688
2008-08-27 04:41:47 51°14.651 2°54.078 20.6487 0.064538 0.334554 -1.174688
2008-08-27 04:41:52 51°14.657 2°54.053 20.6472 0.064538 0.334554 -1.174688
2008-08-27 04:41:57 51°14.664 2°54.028 20.6586 0.064538 0.334554 -1.174688
2008-08-27 04:42:02 51°14.67 2°54.003 20.6664 0.064538 0.334554 -1.174688
2008-08-27 04:42:07 51°14.675 2°53.977 20.6178 0.064538 0.334559 -1.174688
2008-08-27 04:42:12 51°14.68 2°53.952 20.642 0.064538 0.334554 -1.174688
2008-08-27 04:42:17 51°14.685 2°53.926 20.6367 0.064538 0.334554 -1.174688
2008-08-27 04:42:22 51°14.691 2°53.9 20.6265 0.064538 0.334548 -1.174688
2008-08-27 04:42:27 51°14.696 2°53.874 20.6351 0.064538 0.334548 -1.174688
2008-08-27 04:42:32 51°14.7 2°53.848 20.6362 0.064538 0.334548 -1.174688
2008-08-27 04:42:37 51°14.706 2°53.822 20.6349 0.064538 0.334543 -1.174688
2008-08-27 04:42:42 51°14.711 2°53.796 20.6527 0.064538 0.334543 -1.174688
2008-08-27 04:42:47 51°14.716 2°53.771 20.6614 0.064538 0.334543 -1.174688
2008-08-27 04:42:52 51°14.72 2°53.745 20.6552 0.064538 0.334554 -1.174688
2008-08-27 04:42:57 51°14.723 2°53.718 20.6469 0.064538 0.334554 -1.174688
2008-08-27 04:43:02 51°14.727 2°53.692 20.6538 0.064538 0.334554 -1.174688
2008-08-27 04:43:08 51°14.73 2°53.66 20.6275 0.064538 0.334548 -1.174688
2008-08-27 04:43:12 51°14.733 2°53.639 20.6535 0.064538 0.334548 -1.174688
2008-08-27 04:43:17 51°14.735 2°53.612 20.6475 0.064538 0.334543 -1.174688
2008-08-27 04:43:22 51°14.738 2°53.586 20.6471 0.064538 0.334537 -1.174688
2008-08-27 04:43:27 51°14.74 2°53.559 20.6206 0.064538 0.334537 -1.174688
2008-08-27 04:43:32 51°14.742 2°53.532 20.6194 0.064538 0.334532 -1.174688
2008-08-27 04:43:37 51°14.745 2°53.505 20.6343 0.064538 0.334532 -1.174688
2008-08-27 04:43:42 51°14.747 2°53.478 20.6416 0.064538 0.334526 -1.174688
2008-08-27 04:43:47 51°14.749 2°53.451 20.6418 0.064538 0.334532 -1.174688
2008-08-27 04:43:52 51°14.751 2°53.424 20.6474 0.064538 0.334532 -1.174688
2008-08-27 04:43:57 51°14.754 2°53.397 20.6578 0.064538 0.334532 -1.174688
2008-08-27 04:44:02 51°14.756 2°53.37 20.6417 0.064538 0.334532 -1.174688
2008-08-27 04:44:07 51°14.758 2°53.343 20.6313 0.064538 0.334532 -1.174688
2008-08-27 04:44:12 51°14.76 2°53.316 20.6549 0.064538 0.334532 -1.174688
2008-08-27 04:44:17 51°14.763 2°53.289 20.649 0.064538 0.334526 -1.174688
2008-08-27 04:44:22 51°14.765 2°53.263 20.6363 0.064538 0.334526 -1.174688
2008-08-27 04:44:27 51°14.767 2°53.236 20.6204 0.064538 0.334526 -1.174688
2008-08-27 04:44:32 51°14.769 2°53.209 20.6352 0.064538 0.334521 -1.174688
2008-08-27 04:44:37 51°14.771 2°53.182 20.6177 0.064538 0.334521 -1.174688
2008-08-27 04:44:42 51°14.773 2°53.156 20.6525 0.064538 0.334521 -1.174688
2008-08-27 04:44:47 51°14.775 2°53.129 20.6302 0.064538 0.334515 -1.174688
2008-08-27 04:44:52 51°14.777 2°53.102 20.6473 0.064538 0.334515 -1.174688
2008-08-27 04:44:57 51°14.779 2°53.076 20.6375 0.064538 0.334515 -1.174688
2008-08-27 04:45:02 51°14.781 2°53.049 20.6558 0.064538 0.334515 -1.174688
2008-08-27 04:45:07 51°14.782 2°53.022 20.6383 0.064538 0.334521 -1.174688
2008-08-27 04:45:12 51°14.784 2°52.995 20.6419 0.064538 0.334515 -1.174688
2008-08-27 04:45:17 51°14.785 2°52.968 20.637 0.064538 0.334521 -1.174688
2008-08-27 04:45:22 51°14.786 2°52.941 20.6565 0.064538 0.334515 -1.174688
2008-08-27 04:45:28 51°14.788 2°52.909 20.6453 0.064538 0.334515 -1.174688
2008-08-27 04:45:32 51°14.789 2°52.888 20.6467 0.064538 0.33451 -1.174688
2008-08-27 04:45:37 51°14.79 2°52.861 20.6438 0.064538 0.334504 -1.174688
2008-08-27 04:45:42 51°14.791 2°52.834 20.6446 0.064538 0.334504 -1.174688
2008-08-27 04:45:47 51°14.793 2°52.807 20.6179 0.064538 0.334499 -1.174688
2008-08-27 04:45:52 51°14.794 2°52.78 20.6407 0.064538 0.334499 -1.174688
2008-08-27 04:45:57 51°14.795 2°52.753 20.6549 0.064538 0.334499 -1.174688
2008-08-27 04:46:02 51°14.797 2°52.726 20.6254 0.064538 0.334499 -1.174688
2008-08-27 04:46:07 51°14.798 2°52.7 20.6364 0.064538 0.334499 -1.174688
2008-08-27 04:46:12 51°14.799 2°52.673 20.6549 0.064538 0.334493 -1.174688
2008-08-27 04:46:17 51°14.801 2°52.646 20.6365 0.064538 0.334499 -1.174688
2008-08-27 04:46:22 51°14.802 2°52.619 20.6485 0.064538 0.334493 -1.174688
2008-08-27 04:46:27 51°14.804 2°52.592 20.637 0.064538 0.334493 -1.174688
2008-08-27 04:46:32 51°14.805 2°52.565 20.6552 0.064538 0.334493 -1.174688
2008-08-27 04:46:37 51°14.807 2°52.539 20.6425 0.064538 0.334482 -1.174688
2008-08-27 04:46:42 51°14.808 2°52.512 20.6333 0.064538 0.334482 -1.174688
2008-08-27 04:46:47 51°14.81 2°52.485 20.6319 0.064538 0.334482 -1.174688
2008-08-27 04:46:52 51°14.811 2°52.458 20.6411 0.064538 0.334477 -1.174688
2008-08-27 04:46:57 51°14.813 2°52.431 20.621 0.064538 0.334477 -1.174688
2008-08-27 04:47:02 51°14.814 2°52.404 20.6453 0.064538 0.334477 -1.174688
2008-08-27 04:47:07 51°14.816 2°52.377 20.648 0.064538 0.334471 -1.174688
2008-08-27 04:47:12 51°14.817 2°52.351 20.615 0.064538 0.334471 -1.174688
2008-08-27 04:47:17 51°14.819 2°52.324 20.6288 0.064538 0.334466 -1.174688
2008-08-27 04:47:22 51°14.821 2°52.297 20.6426 0.064538 0.33446 -1.174688
2008-08-27 04:47:28 51°14.823 2°52.265 20.6277 0.064538 0.33446 -1.174688
2008-08-27 04:47:32 51°14.824 2°52.244 20.6276 0.064538 0.33446 -1.174688
2008-08-27 04:47:37 51°14.826 2°52.217 20.6545 0.064538 0.33446 -1.174688
2008-08-27 04:47:42 51°14.828 2°52.191 20.6513 0.064538 0.334455 -1.174688
2008-08-27 04:47:47 51°14.83 2°52.164 20.645 0.064538 0.334449 -1.174688
2008-08-27 04:47:52 51°14.831 2°52.137 20.6096 0.064538 0.334449 -1.174688
2008-08-27 04:47:57 51°14.833 2°52.11 20.622 0.064538 0.334449 -1.174688
2008-08-27 04:48:02 51°14.835 2°52.084 20.6423 0.064538 0.334438 -1.139864
2008-08-27 04:48:07 51°14.838 2°52.057 20.6267 0.064538 0.334438 -1.174688
2008-08-27 04:48:12 51°14.84 2°52.03 20.6252 0.064538 0.334433 -1.174688
2008-08-27 04:48:17 51°14.843 2°52.004 20.6462 0.064538 0.334433 -1.174688
2008-08-27 04:48:22 51°14.846 2°51.977 20.6298 0.064538 0.334427 -1.174688
2008-08-27 04:48:27 51°14.849 2°51.95 20.6512 0.064538 0.334427 -1.174688
2008-08-27 04:48:32 51°14.852 2°51.924 20.6371 0.064538 0.334422 -1.174688
2008-08-27 04:48:37 51°14.855 2°51.897 20.6407 0.064538 0.334422 -1.174688
2008-08-27 04:48:42 51°14.858 2°51.87 20.6488 0.064538 0.334422 -1.174688
2008-08-27 04:48:47 51°14.861 2°51.844 20.6446 0.064538 0.334422 -1.174688
2008-08-27 04:48:52 51°14.864 2°51.817 20.6295 0.064538 0.334416 -1.139864
2008-08-27 04:48:57 51°14.867 2°51.79 20.6397 0.064538 0.334416 -1.139864
2008-08-27 04:49:02 51°14.87 2°51.764 20.6485 0.064538 0.334405 -1.174688
2008-08-27 04:49:07 51°14.873 2°51.737 20.6421 0.064538 0.334405 -1.174688
2008-08-27 04:49:12 51°14.876 2°51.71 20.6444 0.064538 0.3344 -1.174688
2008-08-27 04:49:17 51°14.879 2°51.683 20.6402 0.064538 0.334394 -1.174688
2008-08-27 04:49:22 51°14.882 2°51.656 20.64 0.064538 0.334389 -1.174688
2008-08-27 04:49:27 51°14.885 2°51.63 20.6613 0.064538 0.334389 -1.174688
2008-08-27 04:49:32 51°14.888 2°51.603 20.6489 0.064538 0.334389 -1.174688
2008-08-27 04:49:37 51°14.891 2°51.576 20.6537 0.064538 0.334389 -1.174688
2008-08-27 04:49:42 51°14.894 2°51.549 20.6385 0.064538 0.334378 -1.174688
2008-08-27 04:49:47 51°14.897 2°51.522 20.6615 0.064538 0.334378 -1.174688
2008-08-27 04:49:52 51°14.9 2°51.495 20.66 0.064538 0.334378 -1.174688
2008-08-27 04:49:57 51°14.903 2°51.468 20.631 0.064538 0.334378 -1.174688
2008-08-27 04:50:02 51°14.906 2°51.441 20.6444 0.064538 0.334367 -1.174688
2008-08-27 04:50:07 51°14.909 2°51.415 20.6351 0.064538 0.334367 -1.174688
2008-08-27 04:50:12 51°14.913 2°51.388 20.6624 0.064641 0.33491 -1.174688
2008-08-27 04:50:17 51°14.916 2°51.361 20.6333 0.064538 0.334356 -1.174688
2008-08-27 04:50:22 51°14.919 2°51.334 20.6358 0.064538 0.334356 -1.174688
2008-08-27 04:50:27 51°14.922 2°51.307 20.6557 0.064538 0.334356 -1.174688
2008-08-27 04:50:32 51°14.925 2°51.28 20.6398 0.064641 0.334899 -1.174688
2008-08-27 04:50:37 51°14.928 2°51.253 20.6417 0.064641 0.334893 -1.174688
2008-08-27 04:50:42 51°14.931 2°51.226 20.635 0.064641 0.334888 -1.174688
2008-08-27 04:50:47 51°14.935 2°51.199 20.65 0.064641 0.334882 -1.174688
2008-08-27 04:50:52 51°14.939 2°51.173 20.648 0.064641 0.334877 -1.174688
2008-08-27 04:50:57 51°14.943 2°51.146 20.6497 0.064641 0.334877 -1.174688
2008-08-27 04:51:02 51°14.946 2°51.119 20.6454 0.064641 0.334871 -1.174688
2008-08-27 04:51:07 51°14.95 2°51.093 20.666 0.064641 0.334866 -1.174688
2008-08-27 04:51:12 51°14.954 2°51.066 20.6263 0.064641 0.334866 -1.139864
2008-08-27 04:51:17 51°14.958 2°51.039 20.6618 0.064641 0.33486 -1.174688
2008-08-27 04:51:22 51°14.962 2°51.013 20.6308 0.064641 0.33486 -1.174688
2008-08-27 04:51:27 51°14.966 2°50.986 20.6292 0.064641 0.33486 -1.174688
2008-08-27 04:51:32 51°14.97 2°50.959 20.6416 0.064641 0.334855 -1.174688
2008-08-27 04:51:37 51°14.974 2°50.933 20.6608 0.064641 0.334838 -1.174688
2008-08-27 04:51:42 51°14.979 2°50.906 20.6461 0.064641 0.334838 -1.174688
2008-08-27 04:51:47 51°14.984 2°50.88 20.6483 0.064641 0.334833 -1.174688
2008-08-27 04:51:52 51°14.988 2°50.853 20.6578 0.064641 0.334827 -1.174688
2008-08-27 04:51:57 51°14.994 2°50.827 20.6474 0.064641 0.334827 -1.174688
2008-08-27 04:52:02 51°14.998 2°50.801 20.6577 0.064641 0.334827 -1.174688
2008-08-27 04:52:07 51°15.003 2°50.774 20.6565 0.064641 0.334822 -1.139864
2008-08-27 04:52:12 51°15.008 2°50.748 20.6475 0.064641 0.334822 -1.174688
2008-08-27 04:52:17 51°15.012 2°50.721 20.6533 0.064641 0.334816 -1.174688
2008-08-27 04:52:22 51°15.017 2°50.694 20.6376 0.064641 0.334805 -1.174688
2008-08-27 04:52:27 51°15.022 2°50.668 20.6462 0.064641 0.334805 -1.174688
2008-08-27 04:52:32 51°15.027 2°50.642 20.663 0.064641 0.3348 -1.174688
2008-08-27 04:52:37 51°15.031 2°50.615 20.6658 0.064641 0.3348 -1.174688
2008-08-27 04:52:42 51°15.036 2°50.588 20.665 0.064641 0.334794 -1.174688
2008-08-27 04:52:47 51°15.04 2°50.562 20.6599 0.064641 0.334789 -1.174688
2008-08-27 04:52:52 51°15.044 2°50.535 20.6543 0.064641 0.334783 -1.174688
2008-08-27 04:52:57 51°15.048 2°50.508 20.6651 0.064641 0.334783 -1.174688
2008-08-27 04:53:02 51°15.051 2°50.481 20.6328 0.064641 0.334778 -1.174688
2008-08-27 04:53:07 51°15.056 2°50.455 20.6592 0.064641 0.334767 -1.174688
2008-08-27 04:53:12 51°15.06 2°50.428 20.6508 0.064641 0.334761 -1.174688
2008-08-27 04:53:17 51°15.064 2°50.401 20.6609 0.064641 0.33475 -1.174688
2008-08-27 04:53:22 51°15.069 2°50.375 20.6558 0.064641 0.33475 -1.174688
2008-08-27 04:53:27 51°15.073 2°50.348 20.6475 0.064641 0.33475 -1.174688
2008-08-27 04:53:32 51°15.078 2°50.322 20.6725 0.064641 0.33475 -1.174688
2008-08-27 04:53:37 51°15.082 2°50.295 20.6663 0.064641 0.334745 -1.174688
2008-08-27 04:53:42 51°15.087 2°50.268 20.6457 0.064641 0.334739 -1.174688
2008-08-27 04:53:47 51°15.092 2°50.242 20.6768 0.064641 0.334734 -1.139864
2008-08-27 04:53:52 51°15.096 2°50.215 20.6785 0.064641 0.334734 -1.174688
2008-08-27 04:53:57 51°15.1 2°50.189 20.6426 0.064641 0.334734 -1.174688
2008-08-27 04:54:02 51°15.105 2°50.162 20.6649 0.064641 0.334723 -1.174688
2008-08-27 04:54:07 51°15.109 2°50.135 20.6613 0.064641 0.334723 -1.174688
2008-08-27 04:54:12 51°15.113 2°50.108 20.6444 0.064641 0.334718 -1.174688
2008-08-27 04:54:17 51°15.117 2°50.082 20.6573 0.064641 0.334701 -1.174688
2008-08-27 04:54:22 51°15.121 2°50.055 20.6707 0.064641 0.334696 -1.174688
2008-08-27 04:54:27 51°15.125 2°50.028 20.6465 0.064641 0.334696 -1.174688
2008-08-27 04:54:32 51°15.13 2°50.001 20.6571 0.064641 0.33469 -1.174688
2008-08-27 04:54:37 51°15.135 2°49.975 20.6574 0.064641 0.334685 -1.174688
2008-08-27 04:54:42 51°15.139 2°49.949 20.662 0.064641 0.334679 -1.174688
2008-08-27 04:54:47 51°15.144 2°49.922 20.6711 0.064641 0.334679 -1.174688
2008-08-27 04:54:52 51°15.15 2°49.896 20.6755 0.064641 0.334674 -1.174688
2008-08-27 04:54:57 51°15.155 2°49.87 20.6675 0.064641 0.334674 -1.174688
2008-08-27 04:55:02 51°15.16 2°49.844 20.674 0.064641 0.334668 -1.174688
2008-08-27 04:55:07 51°15.165 2°49.817 20.67 0.064641 0.334674 -1.174688
2008-08-27 04:55:12 51°15.169 2°49.791 20.6727 0.064641 0.334663 -1.174688
2008-08-27 04:55:17 51°15.174 2°49.765 20.668 0.064641 0.334657 -1.174688
2008-08-27 04:55:22 51°15.178 2°49.738 20.6548 0.064641 0.334652 -1.174688
2008-08-27 04:55:27 51°15.183 2°49.712 20.6559 0.064641 0.334652 -1.174688
2008-08-27 04:55:32 51°15.188 2°49.685 20.6601 0.064641 0.334641 -1.174688
2008-08-27 04:55:37 51°15.192 2°49.659 20.6657 0.064641 0.33463 -1.174688
2008-08-27 04:55:42 51°15.198 2°49.633 20.6775 0.064641 0.334624 -1.174688
2008-08-27 04:55:47 51°15.203 2°49.607 20.6706 0.064641 0.334619 -1.174688
2008-08-27 04:55:52 51°15.208 2°49.581 20.6829 0.064641 0.334613 -1.174688
2008-08-27 04:55:57 51°15.213 2°49.554 20.6597 0.064641 0.334613 -1.174688
2008-08-27 04:56:02 51°15.218 2°49.528 20.6813 0.064641 0.334608 -1.174688
2008-08-27 04:56:07 51°15.223 2°49.502 20.672 0.064641 0.334608 -1.174688
2008-08-27 04:56:12 51°15.229 2°49.476 20.6638 0.064641 0.334602 -1.139864
2008-08-27 04:56:17 51°15.234 2°49.45 20.677 0.064641 0.334597 -1.174688
2008-08-27 04:56:22 51°15.239 2°49.424 20.6595 0.064641 0.334586 -1.174688
2008-08-27 04:56:27 51°15.245 2°49.398 20.6791 0.064641 0.334586 -1.174688
2008-08-27 04:56:32 51°15.25 2°49.372 20.6735 0.064641 0.33458 -1.174688
2008-08-27 04:56:37 51°15.255 2°49.346 20.6858 0.064641 0.334575 -1.174688
2008-08-27 04:56:42 51°15.26 2°49.32 20.676 0.064641 0.334569 -1.174688
2008-08-27 04:56:48 51°15.267 2°49.288 20.6775 0.064641 0.334558 -1.174688
2008-08-27 04:56:52 51°15.271 2°49.267 20.6686 0.064641 0.334553 -1.174688
2008-08-27 04:56:57 51°15.276 2°49.241 20.6873 0.064641 0.334553 -1.174688
2008-08-27 04:57:02 51°15.281 2°49.215 20.6774 0.064641 0.334547 -1.174688
2008-08-27 04:57:08 51°15.287 2°49.184 20.6747 0.064641 0.334547 -1.174688
2008-08-27 04:57:12 51°15.291 2°49.163 20.6475 0.064641 0.334536 -1.174688
2008-08-27 04:57:17 51°15.297 2°49.138 20.6834 0.064641 0.334525 -1.174688
2008-08-27 04:57:22 51°15.303 2°49.112 20.6847 0.064641 0.33452 -1.174688
2008-08-27 04:57:27 51°15.31 2°49.087 20.6859 0.064641 0.33452 -1.174688
2008-08-27 04:57:32 51°15.316 2°49.062 20.6803 0.064641 0.33452 -1.174688
2008-08-27 04:57:37 51°15.321 2°49.036 20.6718 0.064641 0.334514 -1.174688
2008-08-27 04:57:42 51°15.327 2°49.011 20.6678 0.064641 0.334509 -1.174688
2008-08-27 04:57:47 51°15.334 2°48.986 20.6947 0.064641 0.334498 -1.174688
2008-08-27 04:57:52 51°15.34 2°48.961 20.6899 0.064641 0.334493 -1.174688
2008-08-27 04:57:57 51°15.347 2°48.936 20.6797 0.064641 0.334493 -1.174688
2008-08-27 04:58:02 51°15.354 2°48.911 20.685 0.064641 0.334493 -1.174688
2008-08-27 04:58:07 51°15.36 2°48.886 20.6881 0.064641 0.334482 -1.174688
2008-08-27 04:58:12 51°15.367 2°48.861 20.7028 0.064641 0.334482 -1.174688
2008-08-27 04:58:17 51°15.374 2°48.836 20.6872 0.064641 0.334476 -1.174688
2008-08-27 04:58:22 51°15.381 2°48.812 20.6899 0.064641 0.334471 -1.174688
2008-08-27 04:58:27 51°15.387 2°48.787 20.6742 0.064641 0.334471 -1.174688
2008-08-27 04:58:32 51°15.394 2°48.762 20.7068 0.064641 0.334465 -1.174688
2008-08-27 04:58:37 51°15.4 2°48.737 20.7018 0.064641 0.334465 -1.174688
2008-08-27 04:58:42 51°15.406 2°48.712 20.6956 0.064744 0.335002 -1.174688
2008-08-27 04:58:47 51°15.412 2°48.687 20.6798 0.064641 0.334454 -1.174688
2008-08-27 04:58:52 51°15.418 2°48.661 20.6905 0.064744 0.334991 -1.174688
2008-08-27 04:58:57 51°15.424 2°48.636 20.6859 0.064744 0.334991 -1.174688
2008-08-27 04:59:02 51°15.43 2°48.611 20.6956 0.064744 0.334985 -1.174688
2008-08-27 04:59:08 51°15.438 2°48.582 20.695 0.064744 0.334974 -1.174688
2008-08-27 04:59:12 51°15.443 2°48.562 20.6958 0.064744 0.334969 -1.174688
2008-08-27 04:59:17 51°15.449 2°48.537 20.6902 0.064744 0.334969 -1.174688
2008-08-27 04:59:22 51°15.456 2°48.513 20.707 0.064744 0.334969 -1.174688
2008-08-27 04:59:27 51°15.462 2°48.488 20.688 0.064744 0.334969 -1.174688
2008-08-27 04:59:32 51°15.469 2°48.464 20.7014 0.064744 0.334963 -1.174688
2008-08-27 04:59:37 51°15.475 2°48.439 20.6908 0.064744 0.334969 -1.174688
2008-08-27 04:59:42 51°15.482 2°48.415 20.6993 0.064744 0.334963 -1.174688
2008-08-27 04:59:47 51°15.488 2°48.39 20.6998 0.064744 0.334958 -1.174688
2008-08-27 04:59:52 51°15.495 2°48.366 20.6889 0.064744 0.334952 -1.174688
2008-08-27 04:59:57 51°15.501 2°48.341 20.6938 0.064744 0.334952 -1.174688
2008-08-27 05:00:02 51°15.507 2°48.317 20.7135 0.064744 0.334947 -1.174688
2008-08-27 05:00:07 51°15.514 2°48.292 20.7183 0.064744 0.334947 -1.174688
2008-08-27 05:00:12 51°15.52 2°48.267 20.7027 0.064744 0.334942 -1.174688
2008-08-27 05:00:17 51°15.526 2°48.243 20.7162 0.064744 0.334936 -1.174688
2008-08-27 05:00:22 51°15.533 2°48.218 20.6779 0.064744 0.334936 -1.174688
2008-08-27 05:00:27 51°15.539 2°48.193 20.7138 0.064744 0.334936 -1.174688
2008-08-27 05:00:32 51°15.545 2°48.168 20.699 0.064744 0.334931 -1.174688
2008-08-27 05:00:37 51°15.552 2°48.144 20.7114 0.064744 0.334925 -1.174688
2008-08-27 05:00:42 51°15.558 2°48.119 20.7065 0.064744 0.334925 -1.174688
2008-08-27 05:00:47 51°15.564 2°48.094 20.6996 0.064744 0.334925 -1.174688
2008-08-27 05:00:52 51°15.57 2°48.069 20.7169 0.064744 0.33492 -1.174688
2008-08-27 05:00:57 51°15.577 2°48.044 20.7106 0.064744 0.33492 -1.174688
2008-08-27 05:01:02 51°15.583 2°48.019 20.7123 0.064744 0.33492 -1.174688
2008-08-27 05:01:08 51°15.591 2°47.989 20.716 0.064744 0.334914 -1.174688
2008-08-27 05:01:12 51°15.596 2°47.969 20.707 0.064744 0.334914 -1.174688
2008-08-27 05:01:17 51°15.602 2°47.945 20.7153 0.064744 0.334909 -1.174688
2008-08-27 05:01:22 51°15.608 2°47.919 20.6953 0.064744 0.334914 -1.174688
2008-08-27 05:01:28 51°15.616 2°47.889 20.7059 0.064744 0.334914 -1.174688
2008-08-27 05:01:32 51°15.621 2°47.87 20.7043 0.064744 0.334909 -1.174688
2008-08-27 05:01:37 51°15.627 2°47.845 20.7116 0.064744 0.334903 -1.174688
2008-08-27 05:01:42 51°15.633 2°47.82 20.715 0.064744 0.334903 -1.174688
2008-08-27 05:01:47 51°15.639 2°47.795 20.714 0.064744 0.334898 -1.174688
2008-08-27 05:01:52 51°15.646 2°47.77 20.7071 0.064744 0.334898 -1.174688
2008-08-27 05:01:57 51°15.652 2°47.745 20.7106 0.064744 0.334898 -1.174688
2008-08-27 05:02:02 51°15.658 2°47.719 20.7202 0.064744 0.334898 -1.174688
2008-08-27 05:02:07 51°15.664 2°47.694 20.7158 0.064744 0.334898 -1.174688
2008-08-27 05:02:12 51°15.671 2°47.669 20.7139 0.064744 0.334892 -1.139864
2008-08-27 05:02:17 51°15.677 2°47.644 20.7108 0.064744 0.334887 -1.174688
2008-08-27 05:02:22 51°15.683 2°47.619 20.7279 0.064744 0.334887 -1.174688
2008-08-27 05:02:27 51°15.689 2°47.593 20.709 0.064744 0.334887 -1.174688
2008-08-27 05:02:32 51°15.696 2°47.568 20.7309 0.064744 0.334887 -1.174688
2008-08-27 05:02:37 51°15.702 2°47.543 20.7166 0.064744 0.334887 -1.174688
2008-08-27 05:02:42 51°15.708 2°47.518 20.6956 0.064744 0.334887 -1.174688
2008-08-27 05:02:47 51°15.714 2°47.492 20.7126 0.064744 0.334881 -1.174688
2008-08-27 05:02:52 51°15.72 2°47.467 20.7087 0.064744 0.334881 -1.174688
2008-08-27 05:02:57 51°15.727 2°47.442 20.7178 0.064744 0.334881 -1.174688
2008-08-27 05:03:02 51°15.734 2°47.417 20.7277 0.064744 0.33487 -1.139864
2008-08-27 05:03:07 51°15.74 2°47.392 20.7117 0.064744 0.334876 -1.174688
2008-08-27 05:03:12 51°15.747 2°47.367 20.7211 0.064744 0.33487 -1.174688
2008-08-27 05:03:17 51°15.755 2°47.343 20.7328 0.064744 0.334876 -1.174688
2008-08-27 05:03:22 51°15.762 2°47.318 20.7157 0.064744 0.33487 -1.174688
2008-08-27 05:03:28 51°15.77 2°47.289 20.7297 0.064744 0.33487 -1.174688
2008-08-27 05:03:32 51°15.776 2°47.269 20.716 0.064744 0.334876 -1.174688
2008-08-27 05:03:37 51°15.783 2°47.244 20.7249 0.064744 0.33487 -1.174688
2008-08-27 05:03:42 51°15.79 2°47.22 20.729 0.064744 0.33487 -1.174688
2008-08-27 05:03:47 51°15.798 2°47.195 20.7257 0.064744 0.33487 -1.174688
2008-08-27 05:03:52 51°15.805 2°47.171 20.7291 0.064744 0.334865 -1.174688
2008-08-27 05:03:57 51°15.812 2°47.146 20.7285 0.064744 0.334865 -1.174688
2008-08-27 05:04:02 51°15.819 2°47.122 20.7279 0.064744 0.334865 -1.174688
2008-08-27 05:04:07 51°15.827 2°47.098 20.731 0.064744 0.334859 -1.174688
2008-08-27 05:04:12 51°15.834 2°47.073 20.7365 0.064744 0.334865 -1.174688
2008-08-27 05:04:17 51°15.841 2°47.049 20.7255 0.064744 0.334859 -1.174688
2008-08-27 05:04:22 51°15.848 2°47.024 20.7449 0.064744 0.334859 -1.174688
2008-08-27 05:04:27 51°15.855 2°46.999 20.7222 0.064744 0.334859 -1.174688
2008-08-27 05:04:32 51°15.862 2°46.975 20.7267 0.064744 0.334859 -1.174688
2008-08-27 05:04:37 51°15.869 2°46.951 20.7441 0.064744 0.334865 -1.174688
2008-08-27 05:04:42 51°15.876 2°46.927 20.7351 0.064744 0.334859 -1.174688
2008-08-27 05:04:47 51°15.882 2°46.902 20.7448 0.064744 0.334859 -1.174688
2008-08-27 05:04:52 51°15.889 2°46.878 20.7478 0.064744 0.334859 -1.174688
2008-08-27 05:04:57 51°15.895 2°46.853 20.7305 0.064744 0.334859 -1.174688
2008-08-27 05:05:02 51°15.902 2°46.828 20.7299 0.064744 0.334859 -1.139864
2008-08-27 05:05:07 51°15.908 2°46.803 20.7252 0.064744 0.334854 -1.174688
2008-08-27 05:05:12 51°15.915 2°46.779 20.7427 0.064744 0.334854 -1.174688
2008-08-27 05:05:17 51°15.921 2°46.754 20.7279 0.064744 0.334848 -1.174688
2008-08-27 05:05:22 51°15.927 2°46.729 20.7275 0.064744 0.334848 -1.174688
2008-08-27 05:05:28 51°15.935 2°46.699 20.7403 0.064744 0.334848 -1.174688
2008-08-27 05:05:32 51°15.94 2°46.68 20.7346 0.064744 0.334848 -1.174688
2008-08-27 05:05:37 51°15.947 2°46.655 20.7478 0.064744 0.334848 -1.139864
2008-08-27 05:05:42 51°15.954 2°46.631 20.7298 0.064744 0.334854 -1.174688
2008-08-27 05:05:47 51°15.96 2°46.606 20.7429 0.064744 0.334848 -1.174688
2008-08-27 05:05:52 51°15.967 2°46.581 20.7477 0.064744 0.334848 -1.174688
2008-08-27 05:05:57 51°15.974 2°46.557 20.7381 0.064744 0.334848 -1.174688
2008-08-27 05:06:02 51°15.981 2°46.533 20.7394 0.064744 0.334843 -1.174688
2008-08-27 05:06:08 51°15.989 2°46.504 20.7499 0.064744 0.334843 -1.174688
2008-08-27 05:06:12 51°15.995 2°46.485 20.7444 0.064744 0.334843 -1.174688
2008-08-27 05:06:17 51°16.002 2°46.461 20.7473 0.064744 0.334837 -1.174688
2008-08-27 05:06:22 51°16.009 2°46.437 20.7389 0.064744 0.334837 -1.174688
2008-08-27 05:06:27 51°16.016 2°46.413 20.7522 0.064744 0.334837 -1.174688
2008-08-27 05:06:32 51°16.023 2°46.389 20.7497 0.064744 0.334837 -1.174688
2008-08-27 05:06:37 51°16.031 2°46.365 20.7567 0.064744 0.334837 -1.174688
2008-08-27 05:06:42 51°16.038 2°46.341 20.7557 0.064744 0.334837 -1.174688
2008-08-27 05:06:47 51°16.045 2°46.317 20.7401 0.064744 0.334832 -1.174688
2008-08-27 05:06:52 51°16.052 2°46.293 20.7504 0.064744 0.334832 -1.174688
2008-08-27 05:06:57 51°16.059 2°46.269 20.7405 0.064744 0.334832 -1.174688
2008-08-27 05:07:02 51°16.066 2°46.245 20.7426 0.064744 0.334826 -1.174688
2008-08-27 05:07:07 51°16.073 2°46.221 20.7466 0.064744 0.334821 -1.174688
2008-08-27 05:07:12 51°16.08 2°46.197 20.741 0.064744 0.334821 -1.174688
2008-08-27 05:07:17 51°16.087 2°46.174 20.7661 0.064744 0.334815 -1.174688
2008-08-27 05:07:22 51°16.095 2°46.15 20.7509 0.064744 0.334815 -1.174688
2008-08-27 05:07:27 51°16.101 2°46.126 20.7449 0.064744 0.334815 -1.174688
2008-08-27 05:07:32 51°16.109 2°46.102 20.7475 0.064744 0.334815 -1.174688
2008-08-27 05:07:37 51°16.116 2°46.078 20.7603 0.064744 0.33481 -1.174688
2008-08-27 05:07:42 51°16.123 2°46.054 20.7565 0.064744 0.33481 -1.174688
2008-08-27 05:07:47 51°16.13 2°46.03 20.7398 0.064744 0.334804 -1.139864
2008-08-27 05:07:52 51°16.137 2°46.006 20.7564 0.064744 0.334799 -1.174688
2008-08-27 05:07:57 51°16.144 2°45.983 20.7358 0.064744 0.334799 -1.174688
2008-08-27 05:08:02 51°16.151 2°45.959 20.7533 0.064744 0.334793 -1.174688
2008-08-27 05:08:07 51°16.158 2°45.936 20.7623 0.064744 0.334793 -1.174688
2008-08-27 05:08:12 51°16.165 2°45.912 20.7523 0.064744 0.334793 -1.174688
2008-08-27 05:08:17 51°16.172 2°45.888 20.7496 0.064744 0.334788 -1.174688
2008-08-27 05:08:22 51°16.179 2°45.865 20.7622 0.064744 0.334782 -1.174688
2008-08-27 05:08:28 51°16.187 2°45.837 20.7476 0.064744 0.334782 -1.174688
2008-08-27 05:08:32 51°16.192 2°45.818 20.7692 0.064744 0.334777 -1.174688
2008-08-27 05:08:37 51°16.199 2°45.794 20.7493 0.064744 0.334766 -1.174688
2008-08-27 05:08:42 51°16.206 2°45.77 20.7446 0.064744 0.334766 -1.174688
2008-08-27 05:08:47 51°16.213 2°45.747 20.7628 0.064744 0.334766 -1.174688
2008-08-27 05:08:52 51°16.219 2°45.723 20.7505 0.064744 0.334761 -1.174688
2008-08-27 05:08:57 51°16.226 2°45.699 20.7627 0.064744 0.334761 -1.174688
2008-08-27 05:09:02 51°16.232 2°45.675 20.7667 0.064744 0.334761 -1.174688
2008-08-27 05:09:07 51°16.239 2°45.651 20.7537 0.064744 0.33475 -1.174688
2008-08-27 05:09:12 51°16.245 2°45.627 20.7649 0.064744 0.334739 -1.174688
2008-08-27 05:09:17 51°16.252 2°45.603 20.761 0.064744 0.334733 -1.174688
2008-08-27 05:09:22 51°16.259 2°45.58 20.7419 0.064744 0.334728 -1.174688
2008-08-27 05:09:27 51°16.265 2°45.556 20.7581 0.064744 0.334728 -1.174688
2008-08-27 05:09:32 51°16.272 2°45.532 20.7642 0.064744 0.334728 -1.174688
2008-08-27 05:09:37 51°16.279 2°45.509 20.7627 0.064744 0.334728 -1.174688
2008-08-27 05:09:42 51°16.285 2°45.484 20.7568 0.064744 0.334728 -1.174688
2008-08-27 05:09:47 51°16.291 2°45.461 20.7563 0.064744 0.334717 -1.174688
2008-08-27 05:09:52 51°16.298 2°45.437 20.7541 0.064744 0.334706 -1.174688
2008-08-27 05:09:57 51°16.304 2°45.413 20.7719 0.064744 0.334706 -1.174688
2008-08-27 05:10:02 51°16.311 2°45.389 20.7531 0.064744 0.3347 -1.174688
2008-08-27 05:10:07 51°16.317 2°45.365 20.7696 0.064744 0.334695 -1.174688
2008-08-27 05:10:12 51°16.324 2°45.34 20.7705 0.064744 0.334689 -1.174688
2008-08-27 05:10:17 51°16.33 2°45.316 20.7717 0.064744 0.334684 -1.174688
2008-08-27 05:10:22 51°16.337 2°45.292 20.7599 0.064744 0.334678 -1.174688
2008-08-27 05:10:28 51°16.344 2°45.263 20.7606 0.064744 0.334678 -1.174688
2008-08-27 05:10:32 51°16.349 2°45.244 20.7727 0.064744 0.334678 -1.174688
2008-08-27 05:10:37 51°16.355 2°45.22 20.7649 0.064744 0.334673 -1.174688
2008-08-27 05:10:42 51°16.361 2°45.195 20.7631 0.064744 0.334662 -1.174688
2008-08-27 05:10:47 51°16.368 2°45.172 20.7591 0.064744 0.334656 -1.174688
2008-08-27 05:10:52 51°16.374 2°45.147 20.7683 0.064744 0.334651 -1.174688
2008-08-27 05:10:57 51°16.381 2°45.124 20.7775 0.064744 0.334651 -1.174688
2008-08-27 05:11:02 51°16.388 2°45.1 20.7578 0.064744 0.33464 -1.174688
2008-08-27 05:11:07 51°16.395 2°45.076 20.7596 0.064744 0.334634 -1.174688
2008-08-27 05:11:12 51°16.402 2°45.053 20.7582 0.064744 0.334629 -1.174688
2008-08-27 05:11:17 51°16.409 2°45.03 20.7634 0.064744 0.334624 -1.174688
2008-08-27 05:11:22 51°16.417 2°45.007 20.7813 0.064744 0.334618 -1.174688
2008-08-27 05:11:27 51°16.425 2°44.984 20.7817 0.064744 0.334618 -1.174688
2008-08-27 05:11:32 51°16.432 2°44.961 20.7846 0.064847 0.335165 -1.174688
2008-08-27 05:11:37 51°16.439 2°44.937 20.7775 0.064744 0.334618 -1.174688
2008-08-27 05:11:42 51°16.446 2°44.914 20.7774 0.064744 0.334607 -1.174688
2008-08-27 05:11:47 51°16.454 2°44.89 20.7623 0.064847 0.335149 -1.174688
2008-08-27 05:11:52 51°16.461 2°44.867 20.784 0.064847 0.335138 -1.174688
2008-08-27 05:11:57 51°16.467 2°44.843 20.7889 0.064847 0.335138 -1.174688
2008-08-27 05:12:02 51°16.474 2°44.82 20.7816 0.064744 0.33458 -1.174688
2008-08-27 05:12:07 51°16.481 2°44.796 20.7855 0.064847 0.335121 -1.174688
2008-08-27 05:12:12 51°16.488 2°44.773 20.7881 0.064847 0.335116 -1.174688
2008-08-27 05:12:17 51°16.495 2°44.749 20.7739 0.064847 0.335105 -1.174688
2008-08-27 05:12:22 51°16.502 2°44.726 20.7828 0.064847 0.335105 -1.174688
2008-08-27 05:12:27 51°16.509 2°44.702 20.7777 0.064847 0.335105 -1.174688
2008-08-27 05:12:32 51°16.517 2°44.679 20.7783 0.064847 0.335094 -1.174688
2008-08-27 05:12:37 51°16.525 2°44.656 20.7853 0.064847 0.335088 -1.174688
2008-08-27 05:12:42 51°16.533 2°44.633 20.7909 0.064847 0.335077 -1.174688
2008-08-27 05:12:48 51°16.543 2°44.606 20.7718 0.064847 0.335077 -1.174688
2008-08-27 05:12:52 51°16.55 2°44.589 20.7892 0.064847 0.335072 -1.174688
2008-08-27 05:12:57 51°16.559 2°44.567 20.7921 0.064847 0.335072 -1.174688
2008-08-27 05:13:02 51°16.567 2°44.544 20.7917 0.064847 0.335067 -1.139864
2008-08-27 05:13:07 51°16.576 2°44.523 20.7983 0.064847 0.335061 -1.174688
2008-08-27 05:13:12 51°16.585 2°44.501 20.7938 0.064847 0.335056 -1.174688
2008-08-27 05:13:17 51°16.594 2°44.479 20.7801 0.064847 0.33505 -1.174688
2008-08-27 05:13:22 51°16.603 2°44.458 20.8046 0.064847 0.335039 -1.174688
2008-08-27 05:13:27 51°16.613 2°44.436 20.7742 0.064847 0.335039 -1.174688
2008-08-27 05:13:32 51°16.622 2°44.414 20.7861 0.064847 0.335034 -1.174688
2008-08-27 05:13:37 51°16.631 2°44.392 20.7932 0.064847 0.335028 -1.209513
2008-08-27 05:13:42 51°16.64 2°44.37 20.7986 0.064847 0.335017 -1.174688
2008-08-27 05:13:47 51°16.649 2°44.348 20.7874 0.064847 0.335012 -1.174688
2008-08-27 05:13:52 51°16.657 2°44.326 20.7984 0.064847 0.335001 -1.174688
2008-08-27 05:13:57 51°16.666 2°44.304 20.7886 0.064847 0.335001 -1.174688
2008-08-27 05:14:02 51°16.675 2°44.282 20.7952 0.064847 0.334995 -1.139864
2008-08-27 05:14:07 51°16.684 2°44.26 20.798 0.064847 0.334984 -1.174688
2008-08-27 05:14:12 51°16.693 2°44.238 20.7866 0.064847 0.334979 -1.174688
2008-08-27 05:14:17 51°16.702 2°44.216 20.8046 0.064847 0.334973 -1.174688
2008-08-27 05:14:22 51°16.71 2°44.194 20.7955 0.064847 0.334973 -1.174688
2008-08-27 05:14:27 51°16.719 2°44.172 20.8058 0.064847 0.334973 -1.174688
2008-08-27 05:14:32 51°16.728 2°44.149 20.788 0.064847 0.334962 -1.174688
2008-08-27 05:14:37 51°16.736 2°44.127 20.7991 0.064847 0.334957 -1.174688
2008-08-27 05:14:42 51°16.745 2°44.104 20.8029 0.064847 0.334946 -1.174688
2008-08-27 05:14:48 51°16.755 2°44.077 20.8122 0.064847 0.33494 -1.174688
2008-08-27 05:14:52 51°16.762 2°44.059 20.7964 0.064847 0.334935 -1.174688
2008-08-27 05:14:57 51°16.771 2°44.037 20.8166 0.064847 0.334935 -1.174688
2008-08-27 05:15:02 51°16.779 2°44.014 20.7948 0.064847 0.334935 -1.174688
2008-08-27 05:15:08 51°16.789 2°43.986 20.81 0.064847 0.334924 -1.174688
2008-08-27 05:15:12 51°16.795 2°43.968 20.8039 0.064847 0.334913 -1.174688
2008-08-27 05:15:17 51°16.804 2°43.945 20.7917 0.064847 0.334902 -1.174688
2008-08-27 05:15:22 51°16.812 2°43.923 20.8065 0.064847 0.334891 -1.174688
2008-08-27 05:15:28 51°16.823 2°43.896 20.795 0.064847 0.334891 -1.174688
2008-08-27 05:15:32 51°16.83 2°43.878 20.8181 0.064847 0.33488 -1.174688
2008-08-27 05:15:37 51°16.839 2°43.856 20.7943 0.064847 0.334875 -1.174688
2008-08-27 05:15:42 51°16.847 2°43.834 20.8138 0.064847 0.334869 -1.174688
2008-08-27 05:15:47 51°16.856 2°43.812 20.8002 0.064847 0.334864 -1.174688
2008-08-27 05:15:52 51°16.865 2°43.79 20.814 0.064847 0.334858 -1.174688
2008-08-27 05:15:57 51°16.874 2°43.768 20.8119 0.064847 0.334858 -1.174688
2008-08-27 05:16:02 51°16.883 2°43.745 20.8132 0.064847 0.334858 -1.174688
2008-08-27 05:16:07 51°16.892 2°43.723 20.8201 0.064847 0.334847 -1.174688
2008-08-27 05:16:12 51°16.9 2°43.701 20.8077 0.064847 0.334842 -1.174688
2008-08-27 05:16:17 51°16.909 2°43.678 20.8133 0.064847 0.334826 -1.174688
2008-08-27 05:16:22 51°16.918 2°43.656 20.8026 0.064847 0.33482 -1.174688
2008-08-27 05:16:27 51°16.926 2°43.633 20.795 0.064847 0.33482 -1.174688
2008-08-27 05:16:32 51°16.935 2°43.611 20.8215 0.064847 0.334815 -1.174688
2008-08-27 05:16:37 51°16.944 2°43.589 20.8137 0.064847 0.334809 -1.174688
2008-08-27 05:16:42 51°16.953 2°43.566 20.8183 0.064847 0.334798 -1.174688
2008-08-27 05:16:47 51°16.962 2°43.544 20.8253 0.064847 0.334793 -1.174688
2008-08-27 05:16:52 51°16.97 2°43.521 20.8201 0.064847 0.334782 -1.174688
2008-08-27 05:16:57 51°16.979 2°43.499 20.8083 0.064847 0.334782 -1.174688
2008-08-27 05:17:02 51°16.988 2°43.477 20.8154 0.064847 0.334776 -1.174688
2008-08-27 05:17:08 51°16.999 2°43.45 20.8203 0.064847 0.334765 -1.174688
2008-08-27 05:17:12 51°17.006 2°43.432 20.8234 0.064847 0.33476 -1.174688
2008-08-27 05:17:17 51°17.015 2°43.41 20.8181 0.064847 0.334754 -1.174688
2008-08-27 05:17:22 51°17.024 2°43.388 20.8258 0.064847 0.334749 -1.174688
2008-08-27 05:17:28 51°17.035 2°43.361 20.8176 0.064847 0.334749 -1.174688
2008-08-27 05:17:32 51°17.042 2°43.343 20.8277 0.064847 0.334738 -1.174688
2008-08-27 05:17:37 51°17.05 2°43.32 20.8258 0.064847 0.334738 -1.174688
2008-08-27 05:17:42 51°17.059 2°43.298 20.8267 0.064847 0.334727 -1.174688
2008-08-27 05:17:47 51°17.067 2°43.275 20.8355 0.064847 0.334716 -1.174688
2008-08-27 05:17:52 51°17.076 2°43.252 20.8256 0.064847 0.334705 -1.174688
2008-08-27 05:17:57 51°17.085 2°43.229 20.8217 0.064847 0.334705 -1.174688
2008-08-27 05:18:02 51°17.093 2°43.206 20.8308 0.064847 0.3347 -1.174688
2008-08-27 05:18:07 51°17.102 2°43.184 20.828 0.064847 0.334689 -1.174688
2008-08-27 05:18:12 51°17.111 2°43.161 20.8315 0.06495 0.335224 -1.174688
2008-08-27 05:18:17 51°17.12 2°43.139 20.8324 0.06495 0.335224 -1.174688
2008-08-27 05:18:22 51°17.128 2°43.116 20.8336 0.06495 0.335213 -1.174688
2008-08-27 05:18:27 51°17.137 2°43.094 20.832 0.06495 0.335213 -1.174688
2008-08-27 05:18:32 51°17.147 2°43.072 20.8351 0.06495 0.335208 -1.174688
2008-08-27 05:18:37 51°17.156 2°43.05 20.8311 0.06495 0.335197 -1.174688
2008-08-27 05:18:42 51°17.165 2°43.028 20.8258 0.06495 0.335191 -1.174688
2008-08-27 05:18:47 51°17.175 2°43.006 20.8274 0.06495 0.33518 -1.174688
2008-08-27 05:18:52 51°17.184 2°42.985 20.8396 0.06495 0.335175 -1.174688
2008-08-27 05:18:57 51°17.194 2°42.963 20.842 0.06495 0.335175 -1.174688
2008-08-27 05:19:02 51°17.203 2°42.942 20.8391 0.06495 0.335169 -1.174688
2008-08-27 05:19:08 51°17.215 2°42.917 20.8367 0.06495 0.335159 -1.174688
2008-08-27 05:19:12 51°17.223 2°42.899 20.8252 0.06495 0.335153 -1.174688
2008-08-27 05:19:17 51°17.232 2°42.878 20.8381 0.06495 0.335142 -1.174688
2008-08-27 05:19:22 51°17.242 2°42.857 20.8319 0.06495 0.335131 -1.174688
2008-08-27 05:19:28 51°17.253 2°42.831 20.8395 0.06495 0.335131 -1.174688
2008-08-27 05:19:32 51°17.261 2°42.814 20.8445 0.06495 0.335126 -1.174688
2008-08-27 05:19:37 51°17.27 2°42.793 20.8392 0.06495 0.33512 -1.174688
2008-08-27 05:19:42 51°17.28 2°42.771 20.8508 0.06495 0.335109 -1.174688
2008-08-27 05:19:47 51°17.29 2°42.749 20.8315 0.06495 0.335104 -1.174688
2008-08-27 05:19:52 51°17.299 2°42.727 20.8373 0.06495 0.335098 -1.174688
2008-08-27 05:19:57 51°17.309 2°42.705 20.8482 0.06495 0.335098 -1.174688
2008-08-27 05:20:02 51°17.318 2°42.683 20.8438 0.06495 0.335087 -1.174688
2008-08-27 05:20:07 51°17.328 2°42.661 20.8371 0.06495 0.335076 -1.174688
2008-08-27 05:20:12 51°17.338 2°42.639 20.853 0.06495 0.335066 -1.174688
2008-08-27 05:20:17 51°17.347 2°42.617 20.8475 0.06495 0.33506 -1.174688
2008-08-27 05:20:22 51°17.357 2°42.595 20.8524 0.06495 0.33506 -1.174688
2008-08-27 05:20:27 51°17.367 2°42.573 20.8551 0.06495 0.33506 -1.174688
2008-08-27 05:20:32 51°17.377 2°42.552 20.8352 0.06495 0.335049 -1.174688
2008-08-27 05:20:37 51°17.386 2°42.53 20.8597 0.06495 0.335049 -1.174688
2008-08-27 05:20:42 51°17.396 2°42.508 20.8575 0.06495 0.335044 -1.174688
2008-08-27 05:20:47 51°17.406 2°42.486 20.8585 0.06495 0.335038 -1.174688
2008-08-27 05:20:52 51°17.416 2°42.464 20.8603 0.06495 0.335033 -1.174688
2008-08-27 05:20:57 51°17.425 2°42.442 20.8498 0.06495 0.335033 -1.174688
2008-08-27 05:21:02 51°17.435 2°42.42 20.8514 0.06495 0.335022 -1.174688
2008-08-27 05:21:07 51°17.445 2°42.398 20.8657 0.06495 0.335016 -1.174688
2008-08-27 05:21:12 51°17.454 2°42.376 20.8521 0.06495 0.335011 -1.174688
2008-08-27 05:21:17 51°17.464 2°42.354 20.8648 0.06495 0.335 -1.174688
2008-08-27 05:21:22 51°17.473 2°42.332 20.8589 0.06495 0.335 -1.174688
2008-08-27 05:21:28 51°17.484 2°42.305 20.85 0.06495 0.335 -1.174688
2008-08-27 05:21:32 51°17.492 2°42.287 20.8653 0.06495 0.334994 -1.174688
2008-08-27 05:21:37 51°17.501 2°42.265 20.8573 0.06495 0.334984 -1.174688
2008-08-27 05:21:42 51°17.511 2°42.242 20.8692 0.06495 0.334973 -1.174688
2008-08-27 05:21:47 51°17.52 2°42.22 20.8708 0.06495 0.334978 -1.174688
2008-08-27 05:21:52 51°17.53 2°42.198 20.8641 0.06495 0.334967 -1.174688
2008-08-27 05:21:57 51°17.539 2°42.176 20.8705 0.06495 0.334967 -1.174688
2008-08-27 05:22:02 51°17.548 2°42.154 20.8735 0.06495 0.334967 -1.174688
2008-08-27 05:22:08 51°17.559 2°42.127 20.8695 0.06495 0.334962 -1.174688
2008-08-27 05:22:12 51°17.567 2°42.109 20.8683 0.06495 0.334956 -1.174688
2008-08-27 05:22:17 51°17.576 2°42.087 20.8739 0.06495 0.334945 -1.174688
2008-08-27 05:22:22 51°17.586 2°42.065 20.8748 0.06495 0.33494 -1.174688
2008-08-27 05:22:27 51°17.595 2°42.043 20.8714 0.06495 0.33494 -1.174688
2008-08-27 05:22:32 51°17.604 2°42.02 20.8612 0.06495 0.334929 -1.174688
2008-08-27 05:22:37 51°17.613 2°41.998 20.875 0.06495 0.334929 -1.174688
2008-08-27 05:22:42 51°17.622 2°41.976 20.8738 0.06495 0.334923 -1.174688
2008-08-27 05:22:47 51°17.631 2°41.953 20.8733 0.06495 0.334912 -1.174688
2008-08-27 05:22:52 51°17.64 2°41.931 20.8756 0.06495 0.334907 -1.174688
2008-08-27 05:22:57 51°17.649 2°41.909 20.8807 0.06495 0.334907 -1.174688
2008-08-27 05:23:02 51°17.659 2°41.886 20.8588 0.06495 0.334902 -1.174688
2008-08-27 05:23:07 51°17.668 2°41.865 20.871 0.06495 0.334896 -1.174688
2008-08-27 05:23:12 51°17.678 2°41.843 20.8719 0.06495 0.334885 -1.174688
2008-08-27 05:23:17 51°17.688 2°41.822 20.8858 0.06495 0.334885 -1.174688
2008-08-27 05:23:22 51°17.698 2°41.801 20.8751 0.06495 0.33488 -1.174688
2008-08-27 05:23:28 51°17.709 2°41.775 20.8779 0.06495 0.33488 -1.174688
2008-08-27 05:23:32 51°17.717 2°41.758 20.8799 0.06495 0.33488 -1.174688
2008-08-27 05:23:37 51°17.727 2°41.738 20.8867 0.06495 0.334869 -1.174688
2008-08-27 05:23:42 51°17.737 2°41.716 20.8696 0.06495 0.334858 -1.174688
2008-08-27 05:23:47 51°17.747 2°41.696 20.8897 0.06495 0.334858 -1.174688
2008-08-27 05:23:52 51°17.757 2°41.675 20.8699 0.06495 0.334847 -1.174688
2008-08-27 05:23:57 51°17.767 2°41.653 20.8837 0.06495 0.334847 -1.174688
2008-08-27 05:24:02 51°17.777 2°41.632 20.8901 0.06495 0.334841 -1.174688
2008-08-27 05:24:08 51°17.789 2°41.607 20.8972 0.06495 0.334831 -1.174688
2008-08-27 05:24:12 51°17.796 2°41.59 20.8788 0.065053 0.335371 -1.174688
2008-08-27 05:24:17 51°17.806 2°41.568 20.8852 0.065053 0.335365 -1.174688
2008-08-27 05:24:22 51°17.817 2°41.547 20.8937 0.06495 0.334809 -1.174688
2008-08-27 05:24:27 51°17.828 2°41.526 20.8923 0.06495 0.334809 -1.174688
2008-08-27 05:24:32 51°17.838 2°41.505 20.9023 0.065053 0.335349 -1.174688
2008-08-27 05:24:37 51°17.849 2°41.484 20.8955 0.065053 0.335354 -1.174688
2008-08-27 05:24:42 51°17.859 2°41.463 20.8998 0.065053 0.335349 -1.174688
2008-08-27 05:24:47 51°17.869 2°41.442 20.8832 0.065053 0.335349 -1.174688
2008-08-27 05:24:52 51°17.878 2°41.421 20.8893 0.065053 0.335338 -1.174688
2008-08-27 05:24:57 51°17.888 2°41.4 20.8944 0.065053 0.335338 -1.174688
2008-08-27 05:25:02 51°17.898 2°41.379 20.8807 0.065053 0.335333 -1.174688
2008-08-27 05:25:07 51°17.908 2°41.358 20.898 0.065053 0.335316 -1.174688
2008-08-27 05:25:12 51°17.918 2°41.336 20.9015 0.065053 0.335316 -1.174688
2008-08-27 05:25:17 51°17.928 2°41.315 20.8971 0.065053 0.335311 -1.174688
2008-08-27 05:25:22 51°17.938 2°41.294 20.9006 0.065053 0.335305 -1.174688
2008-08-27 05:25:27 51°17.948 2°41.274 20.9032 0.065053 0.335305 -1.174688
2008-08-27 05:25:32 51°17.958 2°41.253 20.907 0.065053 0.335305 -1.174688
2008-08-27 05:25:37 51°17.969 2°41.232 20.8977 0.065053 0.3353 -1.174688
2008-08-27 05:25:42 51°17.979 2°41.212 20.9027 0.065053 0.3353 -1.174688
2008-08-27 05:25:47 51°17.989 2°41.192 20.9092 0.065053 0.335289 -1.174688
2008-08-27 05:25:52 51°17.999 2°41.172 20.8915 0.065053 0.335294 -1.174688
2008-08-27 05:25:57 51°18.009 2°41.151 20.9059 0.065053 0.335294 -1.174688
2008-08-27 05:26:02 51°18.02 2°41.13 20.9079 0.065053 0.335278 -1.174688
2008-08-27 05:26:07 51°18.03 2°41.11 20.9153 0.065053 0.335283 -1.174688
2008-08-27 05:26:12 51°18.04 2°41.088 20.8932 0.065053 0.335283 -1.174688
2008-08-27 05:26:17 51°18.05 2°41.067 20.9119 0.065053 0.335278 -1.174688
2008-08-27 05:26:22 51°18.06 2°41.045 20.9184 0.065053 0.335272 -1.174688
2008-08-27 05:26:28 51°18.073 2°41.02 20.9042 0.065053 0.335272 -1.174688
2008-08-27 05:26:32 51°18.081 2°41.003 20.9166 0.065053 0.335267 -1.174688
2008-08-27 05:26:37 51°18.09 2°40.982 20.8997 0.065053 0.335261 -1.174688
2008-08-27 05:26:42 51°18.101 2°40.962 20.9166 0.065053 0.335256 -1.174688
2008-08-27 05:26:47 51°18.111 2°40.941 20.9197 0.065053 0.335251 -1.174688
2008-08-27 05:26:52 51°18.121 2°40.92 20.9084 0.065053 0.335251 -1.174688
2008-08-27 05:26:57 51°18.131 2°40.9 20.9144 0.065053 0.335251 -1.174688
2008-08-27 05:27:02 51°18.141 2°40.88 20.9209 0.065053 0.335251 -1.174688
2008-08-27 05:27:07 51°18.152 2°40.859 20.9196 0.065053 0.335245 -1.174688
2008-08-27 05:27:12 51°18.162 2°40.839 20.9232 0.065053 0.335245 -1.174688
2008-08-27 05:27:17 51°18.173 2°40.819 20.9273 0.065053 0.33524 -1.174688
2008-08-27 05:27:22 51°18.183 2°40.798 20.9247 0.065053 0.33524 -1.174688
2008-08-27 05:27:27 51°18.194 2°40.777 20.9211 0.065053 0.33524 -1.174688
2008-08-27 05:27:32 51°18.204 2°40.757 20.9239 0.065053 0.33524 -1.174688
2008-08-27 05:27:37 51°18.215 2°40.736 20.9181 0.065053 0.33524 -1.174688
2008-08-27 05:27:42 51°18.225 2°40.715 20.9249 0.065053 0.335229 -1.174688
2008-08-27 05:27:47 51°18.236 2°40.695 20.9297 0.065053 0.335229 -1.174688
2008-08-27 05:27:52 51°18.246 2°40.674 20.9206 0.065053 0.335223 -1.174688
2008-08-27 05:27:57 51°18.257 2°40.654 20.9078 0.065053 0.335223 -1.174688
2008-08-27 05:28:02 51°18.268 2°40.634 20.9302 0.065053 0.335218 -1.174688
2008-08-27 05:28:07 51°18.278 2°40.613 20.9247 0.065053 0.335218 -1.174688
2008-08-27 05:28:12 51°18.289 2°40.593 20.933 0.065053 0.335223 -1.174688
2008-08-27 05:28:17 51°18.3 2°40.572 20.9301 0.065053 0.335223 -1.174688
2008-08-27 05:28:23 51°18.312 2°40.548 20.933 0.065053 0.335218 -1.174688
2008-08-27 05:28:27 51°18.321 2°40.531 20.9342 0.065053 0.335218 -1.174688
2008-08-27 05:28:32 51°18.332 2°40.51 20.9308 0.065053 0.335218 -1.174688
2008-08-27 05:28:37 51°18.342 2°40.49 20.9254 0.065053 0.335212 -1.174688
2008-08-27 05:28:42 51°18.353 2°40.469 20.934 0.065053 0.335212 -1.174688
2008-08-27 05:28:48 51°18.365 2°40.443 20.9331 0.065053 0.335207 -1.174688
2008-08-27 05:28:52 51°18.373 2°40.426 20.9262 0.065053 0.335201 -1.174688
2008-08-27 05:28:57 51°18.384 2°40.406 20.934 0.065053 0.335201 -1.174688
2008-08-27 05:29:02 51°18.394 2°40.385 20.9372 0.065053 0.335196 -1.174688
2008-08-27 05:29:08 51°18.407 2°40.36 20.939 0.065053 0.335201 -1.174688
2008-08-27 05:29:12 51°18.415 2°40.343 20.9321 0.065053 0.335201 -1.174688
2008-08-27 05:29:17 51°18.425 2°40.322 20.9257 0.065053 0.335201 -1.174688
2008-08-27 05:29:22 51°18.435 2°40.302 20.9442 0.065053 0.335201 -1.174688
2008-08-27 05:29:27 51°18.445 2°40.281 20.9236 0.065053 0.335201 -1.174688
2008-08-27 05:29:32 51°18.456 2°40.26 20.9452 0.065053 0.335201 -1.174688
2008-08-27 05:29:37 51°18.467 2°40.239 20.9443 0.065053 0.335201 -1.174688
2008-08-27 05:29:42 51°18.477 2°40.218 20.9342 0.065053 0.335196 -1.174688
2008-08-27 05:29:47 51°18.489 2°40.197 20.9321 0.065053 0.335196 -1.174688
2008-08-27 05:29:52 51°18.499 2°40.177 20.933 0.065053 0.33519 -1.174688
2008-08-27 05:29:57 51°18.511 2°40.157 20.9435 0.065053 0.33519 -1.174688
2008-08-27 05:30:02 51°18.522 2°40.137 20.9537 0.065053 0.33519 -1.174688
2008-08-27 05:30:07 51°18.533 2°40.116 20.9489 0.065053 0.335196 -1.174688
2008-08-27 05:30:12 51°18.543 2°40.095 20.9329 0.065053 0.335196 -1.174688
2008-08-27 05:30:17 51°18.554 2°40.075 20.95 0.065053 0.335201 -1.174688
2008-08-27 05:30:22 51°18.565 2°40.055 20.9301 0.065053 0.33519 -1.174688
2008-08-27 05:30:27 51°18.576 2°40.035 20.9583 0.065053 0.33519 -1.174688
2008-08-27 05:30:32 51°18.587 2°40.014 20.953 0.065053 0.335196 -1.174688
2008-08-27 05:30:37 51°18.598 2°39.995 20.9402 0.065053 0.33519 -1.174688
2008-08-27 05:30:42 51°18.609 2°39.974 20.9558 0.065053 0.335185 -1.174688
2008-08-27 05:30:48 51°18.622 2°39.95 20.9542 0.065053 0.335185 -1.174688
2008-08-27 05:30:52 51°18.63 2°39.934 20.9642 0.065053 0.335185 -1.174688
2008-08-27 05:30:57 51°18.642 2°39.914 20.9542 0.065053 0.335185 -1.174688
2008-08-27 05:31:02 51°18.652 2°39.894 20.944 0.065053 0.335196 -1.174688
2008-08-27 05:31:08 51°18.665 2°39.87 20.964 0.065053 0.33519 -1.174688
2008-08-27 05:31:12 51°18.674 2°39.854 20.962 0.065053 0.33519 -1.174688
2008-08-27 05:31:17 51°18.684 2°39.833 20.9466 0.065053 0.335185 -1.174688
2008-08-27 05:31:22 51°18.695 2°39.813 20.9659 0.065053 0.335185 -1.174688
2008-08-27 05:31:27 51°18.706 2°39.793 20.9605 0.065053 0.335185 -1.174688
2008-08-27 05:31:32 51°18.717 2°39.773 20.9571 0.065053 0.33519 -1.174688
2008-08-27 05:31:37 51°18.728 2°39.753 20.9653 0.065053 0.335185 -1.174688
2008-08-27 05:31:42 51°18.739 2°39.733 20.9537 0.065053 0.335185 -1.174688
2008-08-27 05:31:47 51°18.749 2°39.713 20.9518 0.065053 0.335185 -1.174688
2008-08-27 05:31:52 51°18.76 2°39.693 20.961 0.065053 0.335185 -1.174688
2008-08-27 05:31:57 51°18.771 2°39.673 20.9583 0.065053 0.335185 -1.174688
2008-08-27 05:32:02 51°18.782 2°39.653 20.9706 0.065053 0.335185 -1.174688
2008-08-27 05:32:07 51°18.792 2°39.633 20.9767 0.065053 0.335185 -1.174688
2008-08-27 05:32:12 51°18.803 2°39.613 20.9712 0.065053 0.335185 -1.174688
2008-08-27 05:32:17 51°18.814 2°39.592 20.9624 0.065053 0.33519 -1.174688
2008-08-27 05:32:22 51°18.824 2°39.572 20.9707 0.065053 0.335185 -1.174688
2008-08-27 05:32:27 51°18.835 2°39.551 20.9753 0.065053 0.335185 -1.174688
2008-08-27 05:32:32 51°18.846 2°39.531 20.9703 0.065053 0.335185 -1.174688
2008-08-27 05:32:37 51°18.856 2°39.511 20.9706 0.065053 0.33518 -1.174688
2008-08-27 05:32:42 51°18.867 2°39.491 20.9769 0.065053 0.33518 -1.174688
2008-08-27 05:32:48 51°18.88 2°39.467 20.9724 0.065053 0.33518 -1.174688
2008-08-27 05:32:52 51°18.888 2°39.451 20.9686 0.065053 0.33518 -1.174688
2008-08-27 05:32:57 51°18.899 2°39.431 20.9586 0.065053 0.33518 -1.174688
2008-08-27 05:33:02 51°18.91 2°39.411 20.9843 0.065053 0.335185 -1.174688
2008-08-27 05:33:08 51°18.923 2°39.386 20.9787 0.065053 0.33519 -1.174688
2008-08-27 05:33:12 51°18.931 2°39.37 20.9781 0.065053 0.33519 -1.174688
2008-08-27 05:33:17 51°18.942 2°39.35 20.9789 0.065053 0.33519 -1.174688
2008-08-27 05:33:22 51°18.952 2°39.33 20.972 0.065053 0.33519 -1.174688
2008-08-27 05:33:28 51°18.965 2°39.305 20.9795 0.065053 0.33519 -1.174688
2008-08-27 05:33:32 51°18.973 2°39.289 20.9814 0.065053 0.33519 -1.174688
2008-08-27 05:33:37 51°18.984 2°39.269 20.9824 0.065053 0.335185 -1.174688
2008-08-27 05:33:42 51°18.994 2°39.248 20.9878 0.065053 0.335185 -1.174688
2008-08-27 05:33:48 51°19.006 2°39.224 20.973 0.065053 0.33519 -1.174688
2008-08-27 05:33:52 51°19.015 2°39.207 20.9749 0.065053 0.33519 -1.174688
2008-08-27 05:33:57 51°19.025 2°39.187 20.9891 0.065053 0.33519 -1.174688
2008-08-27 05:34:02 51°19.035 2°39.167 20.9778 0.065053 0.335185 -1.174688
2008-08-27 05:34:07 51°19.045 2°39.146 20.9826 0.065053 0.33519 -1.174688
2008-08-27 05:34:12 51°19.055 2°39.125 20.9937 0.065053 0.33519 -1.174688
2008-08-27 05:34:17 51°19.065 2°39.104 20.9724 0.065053 0.33519 -1.174688
2008-08-27 05:34:22 51°19.076 2°39.084 20.9889 0.065053 0.33519 -1.174688
2008-08-27 05:34:27 51°19.086 2°39.063 20.9818 0.065053 0.33519 -1.174688
2008-08-27 05:34:32 51°19.097 2°39.043 20.9938 0.065053 0.335185 -1.174688
2008-08-27 05:34:37 51°19.107 2°39.023 20.9921 0.065053 0.335196 -1.174688
2008-08-27 05:34:42 51°19.117 2°39.002 20.9868 0.065053 0.335196 -1.174688
2008-08-27 05:34:47 51°19.127 2°38.982 20.9976 0.065053 0.33519 -1.174688
2008-08-27 05:34:52 51°19.137 2°38.962 20.981 0.065053 0.335196 -1.174688
2008-08-27 05:34:57 51°19.148 2°38.941 21.001 0.065053 0.335196 -1.174688
2008-08-27 05:35:02 51°19.158 2°38.921 20.9927 0.065053 0.335196 -1.174688
2008-08-27 05:35:08 51°19.17 2°38.896 20.9877 0.065053 0.33519 -1.174688
2008-08-27 05:35:12 51°19.178 2°38.879 20.9861 0.065053 0.335196 -1.174688
2008-08-27 05:35:17 51°19.188 2°38.859 20.9885 0.065053 0.33519 -1.174688
2008-08-27 05:35:22 51°19.199 2°38.838 21.0065 0.065053 0.335196 -1.174688
2008-08-27 05:35:28 51°19.211 2°38.813 20.9983 0.065053 0.335196 -1.174688
2008-08-27 05:35:32 51°19.22 2°38.798 20.9939 0.065053 0.33519 -1.174688
2008-08-27 05:35:37 51°19.23 2°38.777 21.0058 0.065053 0.335201 -1.174688
2008-08-27 05:35:42 51°19.24 2°38.757 20.9956 0.065053 0.335196 -1.174688
2008-08-27 05:35:48 51°19.253 2°38.732 20.9901 0.065053 0.33519 -1.174688
2008-08-27 05:35:52 51°19.261 2°38.716 20.9919 0.065053 0.33519 -1.174688
2008-08-27 05:35:57 51°19.272 2°38.696 21.0119 0.065053 0.33519 -1.174688
2008-08-27 05:36:02 51°19.282 2°38.675 20.9985 0.065053 0.335196 -1.174688
2008-08-27 05:36:07 51°19.293 2°38.655 21.0083 0.065053 0.335196 -1.174688
2008-08-27 05:36:12 51°19.304 2°38.635 21.0162 0.065053 0.335201 -1.174688
2008-08-27 05:36:17 51°19.314 2°38.615 21.0045 0.065053 0.335207 -1.174688
2008-08-27 05:36:22 51°19.324 2°38.595 21.0234 0.065053 0.335207 -1.174688
2008-08-27 05:36:27 51°19.335 2°38.575 21.0158 0.065053 0.335207 -1.174688
2008-08-27 05:36:32 51°19.345 2°38.554 20.9981 0.065053 0.335212 -1.174688
2008-08-27 05:36:37 51°19.356 2°38.534 21.0084 0.065053 0.335196 -1.174688
2008-08-27 05:36:42 51°19.366 2°38.514 21.0227 0.065053 0.335201 -1.174688
2008-08-27 05:36:47 51°19.376 2°38.495 21.0171 0.065053 0.335207 -1.174688
2008-08-27 05:36:52 51°19.386 2°38.474 21.0147 0.065053 0.335207 -1.174688
2008-08-27 05:36:57 51°19.397 2°38.454 21.0104 0.065053 0.335207 -1.174688
2008-08-27 05:37:02 51°19.407 2°38.434 21.0174 0.065053 0.335207 -1.174688
2008-08-27 05:37:07 51°19.417 2°38.413 21.0262 0.065053 0.335212 -1.174688
2008-08-27 05:37:12 51°19.427 2°38.393 21.0114 0.065053 0.335212 -1.174688
2008-08-27 05:37:17 51°19.437 2°38.373 21.0294 0.065053 0.335212 -1.174688
2008-08-27 05:37:22 51°19.447 2°38.352 21.0068 0.065053 0.335207 -1.174688
2008-08-27 05:37:28 51°19.459 2°38.327 21.0275 0.065053 0.335207 -1.174688
2008-08-27 05:37:32 51°19.467 2°38.31 21.0281 0.065053 0.335212 -1.174688
2008-08-27 05:37:37 51°19.476 2°38.289 21.0318 0.065053 0.335212 -1.174688
2008-08-27 05:37:42 51°19.486 2°38.268 21.0265 0.065053 0.335218 -1.174688
2008-08-27 05:37:47 51°19.495 2°38.247 21.0094 0.065053 0.335218 -1.174688
2008-08-27 05:37:52 51°19.505 2°38.226 21.0238 0.065053 0.335218 -1.174688
2008-08-27 05:37:57 51°19.515 2°38.205 21.0333 0.065053 0.335218 -1.174688
2008-08-27 05:38:02 51°19.525 2°38.184 21.033 0.065053 0.335218 -1.174688
2008-08-27 05:38:08 51°19.536 2°38.158 21.0247 0.065053 0.335223 -1.174688
2008-08-27 05:38:12 51°19.545 2°38.142 21.0257 0.065053 0.335212 -1.174688
2008-08-27 05:38:17 51°19.555 2°38.122 21.0219 0.065053 0.335212 -1.174688
2008-08-27 05:38:22 51°19.566 2°38.103 21.0298 0.065053 0.335218 -1.174688
2008-08-27 05:38:27 51°19.576 2°38.083 21.0241 0.065053 0.335218 -1.174688